2016 Cux-Wetter.de -Die Nutzung der Wetterdaten nur mit ausdrcklicher Genehmigung
Wetterdaten: Sonntag, 31.01.2021
Datum Zeit Temp. A. Feuchte A. Luftdruck Regen Wind Richtung Richtung Sonnenschein Solar Taupunkt Windchill Windben
31.01.2021 00:00 -7,8 C 92 % 1004,5 hPa 0,0 l/m 1,2 km/h (1 Bft) N-NO 17 0 min 0 W/m -8,9 C -7,8 C 1,6 km/h (1 Bft)
31.01.2021 00:03 -7,9 C 92 % 1004,5 hPa 0,0 l/m 1,1 km/h (1 Bft) N-NO 17 0 min 0 W/m -9,0 C -7,9 C 3,2 km/h (1 Bft)
31.01.2021 00:06 -7,9 C 92 % 1004,5 hPa 0,0 l/m 1,6 km/h (1 Bft) N-NO 17 0 min 0 W/m -9,0 C -7,9 C 3,2 km/h (1 Bft)
31.01.2021 00:09 -7,9 C 92 % 1004,5 hPa 0,0 l/m 2,3 km/h (1 Bft) N-NO 17 0 min 0 W/m -9,0 C -7,9 C 3,2 km/h (1 Bft)
31.01.2021 00:12 -8,0 C 93 % 1004,5 hPa 0,0 l/m 2,4 km/h (1 Bft) N-NO 17 0 min 0 W/m -8,9 C -8,0 C 3,2 km/h (1 Bft)
31.01.2021 00:15 -8,1 C 92 % 1004,4 hPa 0,0 l/m 2,7 km/h (1 Bft) N-NO 17 0 min 0 W/m -9,2 C -8,1 C 3,2 km/h (1 Bft)
31.01.2021 00:18 -8,2 C 92 % 1004,4 hPa 0,0 l/m 2,2 km/h (1 Bft) N-NO 17 0 min 0 W/m -9,3 C -8,2 C 3,2 km/h (1 Bft)
31.01.2021 00:21 -8,3 C 92 % 1004,4 hPa 0,0 l/m 2,3 km/h (1 Bft) N-NO 17 0 min 0 W/m -9,4 C -8,3 C 3,2 km/h (1 Bft)
31.01.2021 00:24 -8,3 C 92 % 1004,3 hPa 0,0 l/m 2,8 km/h (1 Bft) N-NO 17 0 min 0 W/m -9,4 C -8,3 C 3,2 km/h (1 Bft)
31.01.2021 00:27 -8,3 C 92 % 1004,2 hPa 0,0 l/m 3,4 km/h (1 Bft) N-NO 17 0 min 0 W/m -9,4 C -8,3 C 4,8 km/h (1 Bft)
31.01.2021 00:30 -8,4 C 92 % 1004,2 hPa 0,0 l/m 3,0 km/h (1 Bft) N-NO 17 0 min 0 W/m -9,5 C -8,4 C 4,8 km/h (1 Bft)
31.01.2021 00:33 -8,4 C 93 % 1004,3 hPa 0,0 l/m 3,2 km/h (1 Bft) N-NO 17 0 min 0 W/m -9,3 C -8,4 C 4,8 km/h (1 Bft)
31.01.2021 00:36 -8,4 C 93 % 1004,2 hPa 0,0 l/m 2,4 km/h (1 Bft) N-NO 17 0 min 0 W/m -9,3 C -8,4 C 3,2 km/h (1 Bft)
31.01.2021 00:39 -8,4 C 93 % 1004,2 hPa 0,0 l/m 1,4 km/h (1 Bft) N-NO 17 0 min 0 W/m -9,3 C -8,4 C 3,2 km/h (1 Bft)
31.01.2021 00:42 -8,3 C 93 % 1004,3 hPa 0,0 l/m 1,7 km/h (1 Bft) N-NO 17 0 min 0 W/m -9,2 C -8,3 C 3,2 km/h (1 Bft)
31.01.2021 00:45 -8,2 C 93 % 1004,2 hPa 0,0 l/m 1,8 km/h (1 Bft) N-NO 17 0 min 0 W/m -9,1 C -8,2 C 3,2 km/h (1 Bft)
31.01.2021 00:48 -8,1 C 93 % 1004,3 hPa 0,0 l/m 1,4 km/h (1 Bft) N-NO 17 0 min 0 W/m -9,0 C -8,1 C 3,2 km/h (1 Bft)
31.01.2021 00:51 -8,1 C 93 % 1004,3 hPa 0,0 l/m 0,5 km/h (0 Bft) N-NO 17 0 min 0 W/m -9,0 C -8,1 C 1,6 km/h (1 Bft)
31.01.2021 00:54 -8,0 C 93 % 1004,3 hPa 0,0 l/m 0,9 km/h (0 Bft) N-NO 17 0 min 0 W/m -8,9 C -8,0 C 1,6 km/h (1 Bft)
31.01.2021 00:57 -7,9 C 93 % 1004,2 hPa 0,0 l/m 1,5 km/h (1 Bft) N-NO 17 0 min 0 W/m -8,8 C -7,9 C 3,2 km/h (1 Bft)
31.01.2021 01:00 -7,9 C 93 % 1004,3 hPa 0,0 l/m 1,3 km/h (1 Bft) N-NO 17 0 min 0 W/m -8,8 C -7,9 C 1,6 km/h (1 Bft)
31.01.2021 01:03 -7,9 C 93 % 1004,3 hPa 0,0 l/m 1,4 km/h (1 Bft) N-NO 17 0 min 0 W/m -8,8 C -7,9 C 3,2 km/h (1 Bft)
31.01.2021 01:06 -7,9 C 93 % 1004,3 hPa 0,0 l/m 2,1 km/h (1 Bft) N-NO 17 0 min 0 W/m -8,8 C -7,9 C 3,2 km/h (1 Bft)
31.01.2021 01:09 -7,9 C 93 % 1004,2 hPa 0,0 l/m 2,3 km/h (1 Bft) N-NO 17 0 min 0 W/m -8,8 C -7,9 C 3,2 km/h (1 Bft)
31.01.2021 01:12 -7,9 C 93 % 1004,2 hPa 0,0 l/m 2,2 km/h (1 Bft) N-NO 17 0 min 0 W/m -8,8 C -7,9 C 3,2 km/h (1 Bft)
31.01.2021 01:15 -8,0 C 93 % 1004,2 hPa 0,0 l/m 2,7 km/h (1 Bft) N-NO 17 0 min 0 W/m -8,9 C -8,0 C 3,2 km/h (1 Bft)
31.01.2021 01:18 -8,1 C 93 % 1004,2 hPa 0,0 l/m 3,0 km/h (1 Bft) N-NO 17 0 min 0 W/m -9,0 C -8,1 C 4,8 km/h (1 Bft)
31.01.2021 01:21 -8,1 C 93 % 1004,2 hPa 0,0 l/m 3,1 km/h (1 Bft) N-NO 17 0 min 0 W/m -9,0 C -8,1 C 4,8 km/h (1 Bft)
31.01.2021 01:24 -8,1 C 93 % 1004,2 hPa 0,0 l/m 3,3 km/h (1 Bft) N-NO 17 0 min 0 W/m -9,0 C -8,1 C 4,8 km/h (1 Bft)
31.01.2021 01:27 -8,1 C 93 % 1004,2 hPa 0,0 l/m 2,8 km/h (1 Bft) N-NO 17 0 min 0 W/m -9,0 C -8,1 C 3,2 km/h (1 Bft)
31.01.2021 01:30 -8,1 C 93 % 1004,3 hPa 0,0 l/m 2,2 km/h (1 Bft) N-NO 17 0 min 0 W/m -9,0 C -8,1 C 3,2 km/h (1 Bft)
31.01.2021 01:33 -8,1 C 93 % 1004,3 hPa 0,0 l/m 1,4 km/h (1 Bft) N-NO 17 0 min 0 W/m -9,0 C -8,1 C 3,2 km/h (1 Bft)
31.01.2021 01:36 -8,1 C 93 % 1004,3 hPa 0,0 l/m 2,3 km/h (1 Bft) N-NO 17 0 min 0 W/m -9,0 C -8,1 C 3,2 km/h (1 Bft)
31.01.2021 01:39 -8,0 C 93 % 1004,2 hPa 0,0 l/m 2,6 km/h (1 Bft) N-NO 17 0 min 0 W/m -8,9 C -8,0 C 4,8 km/h (1 Bft)
31.01.2021 01:42 -7,9 C 93 % 1004,2 hPa 0,0 l/m 2,2 km/h (1 Bft) N-NO 17 0 min 0 W/m -8,8 C -7,9 C 3,2 km/h (1 Bft)
31.01.2021 01:45 -7,8 C 93 % 1004,1 hPa 0,0 l/m 2,4 km/h (1 Bft) N-NO 17 0 min 0 W/m -8,7 C -7,8 C 4,8 km/h (1 Bft)
31.01.2021 01:48 -7,7 C 93 % 1004,2 hPa 0,0 l/m 0,2 km/h (0 Bft) N-NO 17 0 min 0 W/m -8,6 C -7,7 C 1,6 km/h (1 Bft)
31.01.2021 01:51 -7,7 C 93 % 1004,2 hPa 0,0 l/m 0,7 km/h (0 Bft) N-NO 17 0 min 0 W/m -8,6 C -7,7 C 1,6 km/h (1 Bft)
31.01.2021 01:54 -7,6 C 94 % 1004,2 hPa 0,0 l/m 2,9 km/h (1 Bft) N-NO 17 0 min 0 W/m -8,4 C -7,6 C 4,8 km/h (1 Bft)
31.01.2021 01:57 -7,5 C 93 % 1004,2 hPa 0,0 l/m 3,3 km/h (1 Bft) N-NO 17 0 min 0 W/m -8,4 C -7,5 C 4,8 km/h (1 Bft)
31.01.2021 02:00 -7,4 C 94 % 1004,2 hPa 0,0 l/m 2,5 km/h (1 Bft) N-NO 17 0 min 0 W/m -8,2 C -7,4 C 3,2 km/h (1 Bft)
31.01.2021 02:03 -7,3 C 94 % 1004,2 hPa 0,0 l/m 2,7 km/h (1 Bft) N-NO 17 0 min 0 W/m -8,1 C -7,3 C 3,2 km/h (1 Bft)
31.01.2021 02:06 -7,3 C 94 % 1004,2 hPa 0,0 l/m 2,4 km/h (1 Bft) N-NO 17 0 min 0 W/m -8,1 C -7,3 C 3,2 km/h (1 Bft)
31.01.2021 02:09 -7,2 C 94 % 1004,2 hPa 0,0 l/m 1,9 km/h (1 Bft) N-NO 17 0 min 0 W/m -8,0 C -7,2 C 3,2 km/h (1 Bft)
31.01.2021 02:12 -7,1 C 94 % 1004,2 hPa 0,0 l/m 1,8 km/h (1 Bft) N-NO 17 0 min 0 W/m -7,9 C -7,1 C 3,2 km/h (1 Bft)
31.01.2021 02:15 -7,1 C 94 % 1004,2 hPa 0,0 l/m 2,1 km/h (1 Bft) N-NO 17 0 min 0 W/m -7,9 C -7,1 C 3,2 km/h (1 Bft)
31.01.2021 02:18 -7,1 C 94 % 1004,2 hPa 0,0 l/m 2,1 km/h (1 Bft) N-NO 17 0 min 0 W/m -7,9 C -7,1 C 3,2 km/h (1 Bft)
31.01.2021 02:21 -7,0 C 93 % 1004,2 hPa 0,0 l/m 2,1 km/h (1 Bft) N-NO 17 0 min 0 W/m -7,9 C -7,0 C 3,2 km/h (1 Bft)
31.01.2021 02:24 -7,0 C 94 % 1004,1 hPa 0,0 l/m 2,4 km/h (1 Bft) N-NO 17 0 min 0 W/m -7,8 C -7,0 C 4,8 km/h (1 Bft)
31.01.2021 02:27 -6,9 C 94 % 1004,1 hPa 0,0 l/m 3,1 km/h (1 Bft) N-NO 17 0 min 0 W/m -7,7 C -6,9 C 4,8 km/h (1 Bft)
31.01.2021 02:30 -6,9 C 94 % 1004,1 hPa 0,0 l/m 2,9 km/h (1 Bft) N-NO 17 0 min 0 W/m -7,7 C -6,9 C 4,8 km/h (1 Bft)
31.01.2021 02:33 -6,9 C 94 % 1004,1 hPa 0,0 l/m 2,2 km/h (1 Bft) N-NO 17 0 min 0 W/m -7,7 C -6,9 C 3,2 km/h (1 Bft)
31.01.2021 02:36 -6,9 C 94 % 1004,1 hPa 0,0 l/m 3,2 km/h (1 Bft) N-NO 17 0 min 0 W/m -7,7 C -6,9 C 4,8 km/h (1 Bft)
31.01.2021 02:39 -6,9 C 94 % 1004,0 hPa 0,0 l/m 3,8 km/h (1 Bft) N-NO 18 0 min 0 W/m -7,7 C -6,9 C 4,8 km/h (1 Bft)
31.01.2021 02:42 -6,9 C 94 % 1004,0 hPa 0,0 l/m 3,7 km/h (1 Bft) N-NO 17 0 min 0 W/m -7,7 C -6,9 C 4,8 km/h (1 Bft)
31.01.2021 02:45 -6,9 C 94 % 1004,0 hPa 0,0 l/m 2,3 km/h (1 Bft) N-NO 17 0 min 0 W/m -7,7 C -6,9 C 3,2 km/h (1 Bft)
31.01.2021 02:48 -6,9 C 94 % 1004,0 hPa 0,0 l/m 3,2 km/h (1 Bft) N-NO 17 0 min 0 W/m -7,7 C -6,9 C 4,8 km/h (1 Bft)
31.01.2021 02:51 -6,9 C 94 % 1004,1 hPa 0,0 l/m 3,1 km/h (1 Bft) N-NO 17 0 min 0 W/m -7,7 C -6,9 C 4,8 km/h (1 Bft)
31.01.2021 02:54 -6,9 C 94 % 1004,1 hPa 0,0 l/m 1,9 km/h (1 Bft) N-NO 17 0 min 0 W/m -7,7 C -6,9 C 3,2 km/h (1 Bft)
31.01.2021 02:57 -6,9 C 94 % 1004,1 hPa 0,0 l/m 1,3 km/h (1 Bft) N-NO 17 0 min 0 W/m -7,7 C -6,9 C 3,2 km/h (1 Bft)
31.01.2021 03:00 -6,9 C 94 % 1004,1 hPa 0,0 l/m 1,6 km/h (1 Bft) N-NO 17 0 min 0 W/m -7,7 C -6,9 C 3,2 km/h (1 Bft)
31.01.2021 03:03 -6,9 C 94 % 1004,1 hPa 0,0 l/m 1,7 km/h (1 Bft) N-NO 17 0 min 0 W/m -7,7 C -6,9 C 3,2 km/h (1 Bft)
31.01.2021 03:06 -7,0 C 94 % 1004,1 hPa 0,0 l/m 3,0 km/h (1 Bft) N-NO 17 0 min 0 W/m -7,8 C -7,0 C 3,2 km/h (1 Bft)
31.01.2021 03:09 -6,9 C 94 % 1004,0 hPa 0,0 l/m 2,4 km/h (1 Bft) N-NO 17 0 min 0 W/m -7,7 C -6,9 C 3,2 km/h (1 Bft)
31.01.2021 03:12 -7,0 C 94 % 1004,0 hPa 0,0 l/m 3,7 km/h (1 Bft) N-NO 17 0 min 0 W/m -7,8 C -7,0 C 6,4 km/h (2 Bft)
31.01.2021 03:15 -7,0 C 93 % 1004,1 hPa 0,0 l/m 2,8 km/h (1 Bft) N-NO 17 0 min 0 W/m -7,9 C -7,0 C 4,8 km/h (1 Bft)
31.01.2021 03:18 -7,0 C 94 % 1004,1 hPa 0,0 l/m 2,0 km/h (1 Bft) N-NO 17 0 min 0 W/m -7,8 C -7,0 C 3,2 km/h (1 Bft)
31.01.2021 03:21 -7,0 C 93 % 1004,0 hPa 0,0 l/m 3,2 km/h (1 Bft) N-NO 17 0 min 0 W/m -7,9 C -7,0 C 4,8 km/h (1 Bft)
31.01.2021 03:24 -7,0 C 93 % 1004,0 hPa 0,0 l/m 2,9 km/h (1 Bft) N-NO 17 0 min 0 W/m -7,9 C -7,0 C 4,8 km/h (1 Bft)
31.01.2021 03:27 -7,1 C 93 % 1004,0 hPa 0,0 l/m 3,8 km/h (1 Bft) N-NO 17 0 min 0 W/m -8,0 C -7,1 C 4,8 km/h (1 Bft)
31.01.2021 03:30 -7,1 C 93 % 1004,0 hPa 0,0 l/m 3,9 km/h (1 Bft) N-NO 17 0 min 0 W/m -8,0 C -7,1 C 4,8 km/h (1 Bft)
31.01.2021 03:33 -7,1 C 93 % 1004,0 hPa 0,0 l/m 2,9 km/h (1 Bft) N-NO 17 0 min 0 W/m -8,0 C -7,1 C 4,8 km/h (1 Bft)
31.01.2021 03:36 -7,1 C 93 % 1003,9 hPa 0,0 l/m 3,6 km/h (1 Bft) N-NO 15 0 min 0 W/m -8,0 C -7,1 C 6,4 km/h (2 Bft)
31.01.2021 03:39 -7,0 C 94 % 1003,9 hPa 0,0 l/m 3,3 km/h (1 Bft) N-NO 14 0 min 0 W/m -7,8 C -7,0 C 6,4 km/h (2 Bft)
31.01.2021 03:42 -6,9 C 94 % 1003,8 hPa 0,0 l/m 2,9 km/h (1 Bft) N-NO 14 0 min 0 W/m -7,7 C -6,9 C 4,8 km/h (1 Bft)
31.01.2021 03:45 -6,9 C 94 % 1003,8 hPa 0,0 l/m 2,9 km/h (1 Bft) N-NO 14 0 min 0 W/m -7,7 C -6,9 C 4,8 km/h (1 Bft)
31.01.2021 03:48 -6,9 C 94 % 1003,9 hPa 0,0 l/m 2,2 km/h (1 Bft) N-NO 14 0 min 0 W/m -7,7 C -6,9 C 3,2 km/h (1 Bft)
31.01.2021 03:51 -6,8 C 94 % 1003,9 hPa 0,0 l/m 2,1 km/h (1 Bft) N-NO 14 0 min 0 W/m -7,6 C -6,8 C 3,2 km/h (1 Bft)
31.01.2021 03:54 -6,8 C 94 % 1003,8 hPa 0,0 l/m 3,3 km/h (1 Bft) N 11 0 min 0 W/m -7,6 C -6,8 C 4,8 km/h (1 Bft)
31.01.2021 03:57 -6,6 C 94 % 1003,8 hPa 0,0 l/m 3,7 km/h (1 Bft) N 9 0 min 0 W/m -7,4 C -6,6 C 4,8 km/h (1 Bft)
31.01.2021 04:00 -6,4 C 94 % 1003,8 hPa 0,0 l/m 3,2 km/h (1 Bft) N 9 0 min 0 W/m -7,2 C -6,4 C 4,8 km/h (1 Bft)
31.01.2021 04:03 -6,3 C 94 % 1003,7 hPa 0,0 l/m 3,2 km/h (1 Bft) N 5 0 min 0 W/m -7,1 C -6,3 C 4,8 km/h (1 Bft)
31.01.2021 04:06 -6,2 C 94 % 1003,7 hPa 0,0 l/m 3,0 km/h (1 Bft) N 9 0 min 0 W/m -7,0 C -6,2 C 4,8 km/h (1 Bft)
31.01.2021 04:09 -6,2 C 94 % 1003,7 hPa 0,0 l/m 2,2 km/h (1 Bft) N 9 0 min 0 W/m -7,0 C -6,2 C 3,2 km/h (1 Bft)
31.01.2021 04:12 -6,2 C 94 % 1003,6 hPa 0,0 l/m 2,5 km/h (1 Bft) N 9 0 min 0 W/m -7,0 C -6,2 C 4,8 km/h (1 Bft)
31.01.2021 04:15 -6,2 C 94 % 1003,6 hPa 0,0 l/m 3,3 km/h (1 Bft) N 5 0 min 0 W/m -7,0 C -6,2 C 6,4 km/h (2 Bft)
31.01.2021 04:18 -6,2 C 94 % 1003,6 hPa 0,0 l/m 3,5 km/h (1 Bft) NW 319 0 min 0 W/m -7,0 C -6,2 C 4,8 km/h (1 Bft)
31.01.2021 04:21 -6,3 C 94 % 1003,6 hPa 0,0 l/m 3,7 km/h (1 Bft) SW 234 0 min 0 W/m -7,1 C -6,3 C 4,8 km/h (1 Bft)
31.01.2021 04:24 -6,3 C 94 % 1003,6 hPa 0,0 l/m 4,6 km/h (1 Bft) SW 222 0 min 0 W/m -7,1 C -6,3 C 6,4 km/h (2 Bft)
31.01.2021 04:27 -6,3 C 94 % 1003,6 hPa 0,0 l/m 4,7 km/h (1 Bft) SW 221 0 min 0 W/m -7,1 C -6,3 C 6,4 km/h (2 Bft)
31.01.2021 04:30 -6,2 C 94 % 1003,6 hPa 0,0 l/m 5,3 km/h (1 Bft) SW 217 0 min 0 W/m -7,0 C -6,2 C 6,4 km/h (2 Bft)
31.01.2021 04:33 -6,1 C 94 % 1003,6 hPa 0,0 l/m 4,6 km/h (1 Bft) S-SW 211 0 min 0 W/m -6,9 C -6,1 C 6,4 km/h (2 Bft)
31.01.2021 04:36 -6,1 C 94 % 1003,6 hPa 0,0 l/m 3,8 km/h (1 Bft) S-SW 208 0 min 0 W/m -6,9 C -6,1 C 6,4 km/h (2 Bft)
31.01.2021 04:39 -6,0 C 94 % 1003,6 hPa 0,0 l/m 4,5 km/h (1 Bft) S-SW 209 0 min 0 W/m -6,8 C -6,0 C 6,4 km/h (2 Bft)
31.01.2021 04:42 -5,9 C 94 % 1003,6 hPa 0,0 l/m 4,1 km/h (1 Bft) S-SW 209 0 min 0 W/m -6,7 C -5,9 C 4,8 km/h (1 Bft)
31.01.2021 04:45 -5,9 C 94 % 1003,6 hPa 0,0 l/m 4,3 km/h (1 Bft) S-SW 208 0 min 0 W/m -6,7 C -5,9 C 6,4 km/h (2 Bft)
31.01.2021 04:48 -5,8 C 94 % 1003,5 hPa 0,0 l/m 4,1 km/h (1 Bft) S-SW 207 0 min 0 W/m -6,6 C -5,8 C 6,4 km/h (2 Bft)
31.01.2021 04:51 -5,8 C 94 % 1003,6 hPa 0,0 l/m 3,9 km/h (1 Bft) S-SW 205 0 min 0 W/m -6,6 C -5,8 C 6,4 km/h (2 Bft)
31.01.2021 04:54 -5,7 C 94 % 1003,5 hPa 0,0 l/m 3,6 km/h (1 Bft) S-SW 207 0 min 0 W/m -6,5 C -5,7 C 6,4 km/h (2 Bft)
31.01.2021 04:57 -5,7 C 94 % 1003,5 hPa 0,0 l/m 4,6 km/h (1 Bft) S-SW 207 0 min 0 W/m -6,5 C -5,7 C 6,4 km/h (2 Bft)
31.01.2021 05:00 -5,7 C 94 % 1003,6 hPa 0,0 l/m 5,1 km/h (1 Bft) S-SW 208 0 min 0 W/m -6,5 C -5,7 C 6,4 km/h (2 Bft)
31.01.2021 05:03 -5,6 C 94 % 1003,6 hPa 0,0 l/m 4,6 km/h (1 Bft) S-SW 209 0 min 0 W/m -6,4 C -5,6 C 8,0 km/h (2 Bft)
31.01.2021 05:06 -5,3 C 95 % 1003,5 hPa 0,0 l/m 4,6 km/h (1 Bft) SW 215 0 min 0 W/m -6,0 C -5,3 C 6,4 km/h (2 Bft)
31.01.2021 05:09 -5,1 C 95 % 1003,6 hPa 0,0 l/m 5,8 km/h (2 Bft) SW 214 0 min 0 W/m -5,8 C -5,1 C 8,0 km/h (2 Bft)
31.01.2021 05:12 -4,7 C 95 % 1003,6 hPa 0,0 l/m 5,4 km/h (2 Bft) S-SW 213 0 min 0 W/m -5,4 C -4,7 C 8,0 km/h (2 Bft)
31.01.2021 05:15 -4,4 C 95 % 1003,6 hPa 0,0 l/m 6,2 km/h (2 Bft) SW 234 0 min 0 W/m -5,1 C -4,4 C 11,3 km/h (2 Bft)
31.01.2021 05:18 -4,2 C 95 % 1003,5 hPa 0,0 l/m 7,3 km/h (2 Bft) SW 225 0 min 0 W/m -4,9 C -5,3 C 9,7 km/h (2 Bft)
31.01.2021 05:21 -3,9 C 95 % 1003,6 hPa 0,0 l/m 7,6 km/h (2 Bft) SW 221 0 min 0 W/m -4,6 C -5,3 C 11,3 km/h (2 Bft)
31.01.2021 05:24 -3,8 C 95 % 1003,6 hPa 0,0 l/m 6,9 km/h (2 Bft) S-SW 209 0 min 0 W/m -4,5 C -4,4 C 9,7 km/h (2 Bft)
31.01.2021 05:27 -3,7 C 95 % 1003,6 hPa 0,0 l/m 7,8 km/h (2 Bft) SW 226 0 min 0 W/m -4,4 C -5,3 C 12,9 km/h (3 Bft)
31.01.2021 05:30 -3,6 C 95 % 1003,6 hPa 0,0 l/m 7,2 km/h (2 Bft) SW 227 0 min 0 W/m -4,3 C -4,5 C 9,7 km/h (2 Bft)
31.01.2021 05:33 -3,6 C 95 % 1003,7 hPa 0,0 l/m 7,9 km/h (2 Bft) W-SW 243 0 min 0 W/m -4,3 C -5,3 C 12,9 km/h (3 Bft)
31.01.2021 05:36 -3,6 C 95 % 1003,6 hPa 0,0 l/m 8,1 km/h (2 Bft) W-SW 251 0 min 0 W/m -4,3 C -5,5 C 12,9 km/h (3 Bft)
31.01.2021 05:39 -3,4 C 95 % 1003,6 hPa 0,0 l/m 7,2 km/h (2 Bft) W-SW 250 0 min 0 W/m -4,1 C -4,3 C 9,7 km/h (2 Bft)
31.01.2021 05:42 -3,4 C 95 % 1003,6 hPa 0,0 l/m 6,3 km/h (2 Bft) S-SW 207 0 min 0 W/m -4,1 C -3,4 C 9,7 km/h (2 Bft)
31.01.2021 05:45 -3,4 C 95 % 1003,6 hPa 0,0 l/m 6,5 km/h (2 Bft) SW 217 0 min 0 W/m -4,1 C -3,5 C 9,7 km/h (2 Bft)
31.01.2021 05:48 -3,4 C 95 % 1003,6 hPa 0,0 l/m 6,8 km/h (2 Bft) SW 214 0 min 0 W/m -4,1 C -3,8 C 8,0 km/h (2 Bft)
31.01.2021 05:51 -3,4 C 95 % 1003,7 hPa 0,0 l/m 6,4 km/h (2 Bft) SW 222 0 min 0 W/m -4,1 C -3,3 C 9,7 km/h (2 Bft)
31.01.2021 05:54 -3,4 C 95 % 1003,6 hPa 0,0 l/m 6,7 km/h (2 Bft) SW 232 0 min 0 W/m -4,1 C -3,7 C 9,7 km/h (2 Bft)
31.01.2021 05:57 -3,4 C 95 % 1003,6 hPa 0,0 l/m 7,1 km/h (2 Bft) SW 215 0 min 0 W/m -4,1 C -4,2 C 9,7 km/h (2 Bft)
31.01.2021 06:00 -3,4 C 95 % 1003,6 hPa 0,0 l/m 7,9 km/h (2 Bft) SW 222 0 min 0 W/m -4,1 C -5,1 C 11,3 km/h (2 Bft)
31.01.2021 06:03 -3,3 C 95 % 1003,6 hPa 0,0 l/m 7,0 km/h (2 Bft) SW 216 0 min 0 W/m -4,0 C -4,0 C 9,7 km/h (2 Bft)
31.01.2021 06:06 -3,3 C 95 % 1003,6 hPa 0,0 l/m 8,0 km/h (2 Bft) SW 215 0 min 0 W/m -4,0 C -5,1 C 12,9 km/h (3 Bft)
31.01.2021 06:09 -3,3 C 95 % 1003,5 hPa 0,0 l/m 8,1 km/h (2 Bft) SW 227 0 min 0 W/m -4,0 C -5,2 C 12,9 km/h (3 Bft)
31.01.2021 06:12 -3,3 C 95 % 1003,6 hPa 0,0 l/m 7,6 km/h (2 Bft) SW 225 0 min 0 W/m -4,0 C -4,7 C 11,3 km/h (2 Bft)
31.01.2021 06:15 -3,3 C 95 % 1003,5 hPa 0,0 l/m 8,0 km/h (2 Bft) SW 224 0 min 0 W/m -4,0 C -5,1 C 11,3 km/h (2 Bft)
31.01.2021 06:18 -3,3 C 95 % 1003,5 hPa 0,0 l/m 8,1 km/h (2 Bft) SW 219 0 min 0 W/m -4,0 C -5,2 C 12,9 km/h (3 Bft)
31.01.2021 06:21 -3,3 C 95 % 1003,5 hPa 0,0 l/m 7,9 km/h (2 Bft) SW 217 0 min 0 W/m -4,0 C -5,0 C 9,7 km/h (2 Bft)
31.01.2021 06:24 -3,3 C 95 % 1003,6 hPa 0,0 l/m 7,9 km/h (2 Bft) SW 223 0 min 0 W/m -4,0 C -5,0 C 11,3 km/h (2 Bft)
31.01.2021 06:27 -3,3 C 95 % 1003,5 hPa 0,0 l/m 7,2 km/h (2 Bft) S-SW 212 0 min 0 W/m -4,0 C -4,2 C 11,3 km/h (2 Bft)
31.01.2021 06:30 -3,3 C 95 % 1003,5 hPa 0,0 l/m 8,9 km/h (2 Bft) S-SW 207 0 min 0 W/m -4,0 C -6,0 C 12,9 km/h (3 Bft)
31.01.2021 06:33 -3,3 C 95 % 1003,5 hPa 0,0 l/m 8,6 km/h (2 Bft) SW 219 0 min 0 W/m -4,0 C -5,7 C 11,3 km/h (2 Bft)
31.01.2021 06:36 -3,2 C 95 % 1003,6 hPa 0,0 l/m 8,5 km/h (2 Bft) SW 221 0 min 0 W/m -3,9 C -5,5 C 12,9 km/h (3 Bft)
31.01.2021 06:39 -3,2 C 95 % 1003,6 hPa 0,0 l/m 9,9 km/h (2 Bft) SW 227 0 min 0 W/m -3,9 C -6,9 C 14,5 km/h (3 Bft)
31.01.2021 06:42 -3,1 C 95 % 1003,5 hPa 0,0 l/m 9,3 km/h (2 Bft) SW 218 0 min 0 W/m -3,8 C -6,2 C 12,9 km/h (3 Bft)
31.01.2021 06:45 -3,1 C 95 % 1003,6 hPa 0,0 l/m 8,8 km/h (2 Bft) SW 227 0 min 0 W/m -3,8 C -5,7 C 16,1 km/h (3 Bft)
31.01.2021 06:48 -3,0 C 95 % 1003,6 hPa 0,0 l/m 8,0 km/h (2 Bft) SW 220 0 min 0 W/m -3,7 C -4,8 C 12,9 km/h (3 Bft)
31.01.2021 06:51 -2,9 C 95 % 1003,6 hPa 0,0 l/m 10,7 km/h (2 Bft) S-SW 208 0 min 0 W/m -3,6 C -7,3 C 14,5 km/h (3 Bft)
31.01.2021 06:54 -2,9 C 95 % 1003,5 hPa 0,0 l/m 9,1 km/h (2 Bft) SW 224 0 min 0 W/m -3,6 C -5,8 C 12,9 km/h (3 Bft)
31.01.2021 06:57 -2,9 C 95 % 1003,5 hPa 0,0 l/m 10,0 km/h (2 Bft) SW 227 0 min 0 W/m -3,6 C -6,7 C 14,5 km/h (3 Bft)
31.01.2021 07:00 -2,9 C 95 % 1003,6 hPa 0,0 l/m 9,0 km/h (2 Bft) W-SW 252 0 min 0 W/m -3,6 C -5,7 C 12,9 km/h (3 Bft)
31.01.2021 07:03 -2,9 C 95 % 1003,5 hPa 0,0 l/m 9,7 km/h (2 Bft) SW 231 0 min 0 W/m -3,6 C -6,4 C 16,1 km/h (3 Bft)
31.01.2021 07:06 -2,9 C 95 % 1003,6 hPa 0,0 l/m 9,0 km/h (2 Bft) SW 225 0 min 0 W/m -3,6 C -5,7 C 12,9 km/h (3 Bft)
31.01.2021 07:09 -2,9 C 95 % 1003,5 hPa 0,0 l/m 8,7 km/h (2 Bft) S-SW 213 0 min 0 W/m -3,6 C -5,4 C 11,3 km/h (2 Bft)
31.01.2021 07:12 -3,0 C 95 % 1003,5 hPa 0,0 l/m 9,5 km/h (2 Bft) S-SW 211 0 min 0 W/m -3,7 C -6,3 C 14,5 km/h (3 Bft)
31.01.2021 07:15 -3,1 C 95 % 1003,5 hPa 0,0 l/m 7,8 km/h (2 Bft) SW 214 0 min 0 W/m -3,8 C -4,7 C 11,3 km/h (2 Bft)
31.01.2021 07:18 -3,2 C 95 % 1003,6 hPa 0,0 l/m 7,4 km/h (2 Bft) SW 218 0 min 0 W/m -3,9 C -4,3 C 12,9 km/h (3 Bft)
31.01.2021 07:21 -3,2 C 95 % 1003,6 hPa 0,0 l/m 7,5 km/h (2 Bft) S-SW 203 0 min 0 W/m -3,9 C -4,5 C 11,3 km/h (2 Bft)
31.01.2021 07:24 -3,3 C 95 % 1003,5 hPa 0,0 l/m 7,3 km/h (2 Bft) SW 215 0 min 0 W/m -4,0 C -4,3 C 11,3 km/h (2 Bft)
31.01.2021 07:27 -3,3 C 94 % 1003,5 hPa 0,0 l/m 7,2 km/h (2 Bft) S-SW 206 0 min 0 W/m -4,1 C -4,2 C 11,3 km/h (2 Bft)
31.01.2021 07:30 -3,4 C 95 % 1003,5 hPa 0,0 l/m 6,9 km/h (2 Bft) SW 214 0 min 0 W/m -4,1 C -4,0 C 11,3 km/h (2 Bft)
31.01.2021 07:33 -3,6 C 95 % 1003,6 hPa 0,0 l/m 6,2 km/h (2 Bft) S-SW 210 0 min 0 W/m -4,3 C -3,6 C 9,7 km/h (2 Bft)
31.01.2021 07:36 -3,7 C 94 % 1003,6 hPa 0,0 l/m 4,7 km/h (1 Bft) S-SW 192 0 min 0 W/m -4,5 C -3,7 C 8,0 km/h (2 Bft)
31.01.2021 07:39 -3,8 C 94 % 1003,6 hPa 0,0 l/m 5,6 km/h (2 Bft) S-SW 209 0 min 0 W/m -4,6 C -3,8 C 9,7 km/h (2 Bft)
31.01.2021 07:42 -3,9 C 94 % 1003,7 hPa 0,0 l/m 6,7 km/h (2 Bft) S-SW 208 0 min 0 W/m -4,7 C -4,2 C 9,7 km/h (2 Bft)
31.01.2021 07:45 -4,0 C 94 % 1003,8 hPa 0,0 l/m 6,7 km/h (2 Bft) S-SW 202 0 min 0 W/m -4,8 C -4,3 C 9,7 km/h (2 Bft)
31.01.2021 07:48 -4,1 C 94 % 1003,7 hPa 0,0 l/m 5,6 km/h (2 Bft) S-SW 205 0 min 0 W/m -4,9 C -4,1 C 9,7 km/h (2 Bft)
31.01.2021 07:51 -4,1 C 94 % 1003,8 hPa 0,0 l/m 6,1 km/h (2 Bft) S-SW 209 0 min 0 W/m -4,9 C -4,1 C 9,7 km/h (2 Bft)
31.01.2021 07:54 -4,2 C 95 % 1003,7 hPa 0,0 l/m 4,5 km/h (1 Bft) S 188 0 min 0 W/m -4,9 C -4,2 C 6,4 km/h (2 Bft)
31.01.2021 07:57 -4,2 C 95 % 1003,8 hPa 0,0 l/m 4,9 km/h (1 Bft) SW 215 0 min 0 W/m -4,9 C -4,2 C 8,0 km/h (2 Bft)
31.01.2021 08:00 -4,2 C 95 % 1003,8 hPa 0,0 l/m 6,5 km/h (2 Bft) S-SW 202 0 min 0 W/m -4,9 C -4,3 C 11,3 km/h (2 Bft)
31.01.2021 08:03 -4,1 C 95 % 1003,9 hPa 0,0 l/m 6,3 km/h (2 Bft) SW 215 0 min 0 W/m -4,8 C -4,1 C 9,7 km/h (2 Bft)
31.01.2021 08:06 -4,1 C 95 % 1003,8 hPa 0,0 l/m 7,5 km/h (2 Bft) SW 222 0 min 0 W/m -4,8 C -5,4 C 11,3 km/h (2 Bft)
31.01.2021 08:09 -3,9 C 95 % 1003,9 hPa 0,0 l/m 6,7 km/h (2 Bft) SW 224 0 min 0 W/m -4,6 C -4,2 C 9,7 km/h (2 Bft)
31.01.2021 08:12 -3,9 C 95 % 1003,8 hPa 0,0 l/m 7,2 km/h (2 Bft) SW 223 0 min 5 W/m -4,6 C -4,8 C 9,7 km/h (2 Bft)
31.01.2021 08:15 -3,7 C 95 % 1003,8 hPa 0,0 l/m 8,0 km/h (2 Bft) S-SW 206 0 min 5 W/m -4,4 C -5,5 C 11,3 km/h (2 Bft)
31.01.2021 08:18 -3,6 C 95 % 1003,8 hPa 0,0 l/m 8,4 km/h (2 Bft) SW 223 0 min 5 W/m -4,3 C -5,9 C 11,3 km/h (2 Bft)
31.01.2021 08:21 -3,4 C 95 % 1003,8 hPa 0,0 l/m 8,5 km/h (2 Bft) S-SW 213 0 min 5 W/m -4,1 C -5,7 C 12,9 km/h (3 Bft)
31.01.2021 08:24 -3,3 C 95 % 1003,8 hPa 0,0 l/m 7,3 km/h (2 Bft) SW 220 0 min 5 W/m -4,0 C -4,3 C 9,7 km/h (2 Bft)
31.01.2021 08:27 -3,3 C 95 % 1003,7 hPa 0,0 l/m 6,4 km/h (2 Bft) S-SW 205 0 min 5 W/m -4,0 C -3,2 C 9,7 km/h (2 Bft)
31.01.2021 08:30 -3,3 C 95 % 1003,7 hPa 0,0 l/m 5,7 km/h (2 Bft) SW 217 0 min 5 W/m -4,0 C -3,3 C 9,7 km/h (2 Bft)
31.01.2021 08:33 -3,3 C 95 % 1003,7 hPa 0,0 l/m 6,0 km/h (2 Bft) S-SW 199 0 min 5 W/m -4,0 C -3,3 C 9,7 km/h (2 Bft)
31.01.2021 08:36 -3,3 C 95 % 1003,8 hPa 0,0 l/m 5,5 km/h (2 Bft) SW 218 0 min 7 W/m -4,0 C -3,3 C 8,0 km/h (2 Bft)
31.01.2021 08:39 -3,4 C 95 % 1003,8 hPa 0,0 l/m 7,3 km/h (2 Bft) SW 220 0 min 7 W/m -4,1 C -4,4 C 9,7 km/h (2 Bft)
31.01.2021 08:42 -3,5 C 95 % 1003,8 hPa 0,0 l/m 7,8 km/h (2 Bft) SW 218 0 min 7 W/m -4,2 C -5,1 C 11,3 km/h (2 Bft)
31.01.2021 08:45 -3,5 C 95 % 1003,8 hPa 0,0 l/m 7,3 km/h (2 Bft) SW 219 0 min 7 W/m -4,2 C -4,5 C 11,3 km/h (2 Bft)
31.01.2021 08:48 -3,5 C 95 % 1003,8 hPa 0,0 l/m 7,0 km/h (2 Bft) SW 227 0 min 7 W/m -4,2 C -4,2 C 11,3 km/h (2 Bft)
31.01.2021 08:51 -3,5 C 95 % 1003,8 hPa 0,0 l/m 7,1 km/h (2 Bft) SW 214 0 min 9 W/m -4,2 C -4,3 C 9,7 km/h (2 Bft)
31.01.2021 08:54 -3,4 C 95 % 1003,8 hPa 0,0 l/m 8,5 km/h (2 Bft) SW 221 0 min 9 W/m -4,1 C -5,7 C 12,9 km/h (3 Bft)
31.01.2021 08:57 -3,4 C 95 % 1003,8 hPa 0,0 l/m 5,8 km/h (2 Bft) SW 223 0 min 11 W/m -4,1 C -3,4 C 8,0 km/h (2 Bft)
31.01.2021 09:00 -3,4 C 95 % 1003,8 hPa 0,0 l/m 5,1 km/h (1 Bft) S-SW 206 0 min 11 W/m -4,1 C -3,4 C 8,0 km/h (2 Bft)
31.01.2021 09:03 -3,5 C 95 % 1003,8 hPa 0,0 l/m 5,0 km/h (1 Bft) SW 216 0 min 11 W/m -4,2 C -3,5 C 8,0 km/h (2 Bft)
31.01.2021 09:06 -3,6 C 95 % 1003,7 hPa 0,0 l/m 5,8 km/h (2 Bft) S-SW 212 0 min 12 W/m -4,3 C -3,6 C 9,7 km/h (2 Bft)
31.01.2021 09:09 -3,6 C 95 % 1003,7 hPa 0,0 l/m 6,9 km/h (2 Bft) S-SW 202 0 min 14 W/m -4,3 C -4,2 C 9,7 km/h (2 Bft)
31.01.2021 09:12 -3,6 C 95 % 1003,8 hPa 0,0 l/m 6,3 km/h (2 Bft) S-SW 203 0 min 14 W/m -4,3 C -3,6 C 9,7 km/h (2 Bft)
31.01.2021 09:15 -3,6 C 95 % 1003,8 hPa 0,0 l/m 7,7 km/h (2 Bft) SW 220 0 min 16 W/m -4,3 C -5,1 C 9,7 km/h (2 Bft)
31.01.2021 09:18 -3,6 C 95 % 1003,8 hPa 0,0 l/m 7,7 km/h (2 Bft) SW 223 0 min 18 W/m -4,3 C -5,1 C 11,3 km/h (2 Bft)
31.01.2021 09:21 -3,6 C 95 % 1003,8 hPa 0,0 l/m 7,3 km/h (2 Bft) SW 223 0 min 19 W/m -4,3 C -4,6 C 9,7 km/h (2 Bft)
31.01.2021 09:24 -3,5 C 95 % 1003,7 hPa 0,0 l/m 8,4 km/h (2 Bft) SW 227 0 min 19 W/m -4,2 C -5,7 C 12,9 km/h (3 Bft)
31.01.2021 09:27 -3,5 C 95 % 1003,8 hPa 0,0 l/m 8,6 km/h (2 Bft) S-SW 200 0 min 19 W/m -4,2 C -6,0 C 14,5 km/h (3 Bft)
31.01.2021 09:30 -3,4 C 95 % 1003,8 hPa 0,0 l/m 9,2 km/h (2 Bft) S-SW 206 0 min 19 W/m -4,1 C -6,4 C 12,9 km/h (3 Bft)
31.01.2021 09:33 -3,4 C 95 % 1003,8 hPa 0,0 l/m 9,6 km/h (2 Bft) SW 236 0 min 21 W/m -4,1 C -6,8 C 12,9 km/h (3 Bft)
31.01.2021 09:36 -3,3 C 95 % 1003,9 hPa 0,0 l/m 9,2 km/h (2 Bft) SW 226 0 min 21 W/m -4,0 C -6,3 C 14,5 km/h (3 Bft)
31.01.2021 09:39 -3,3 C 95 % 1003,9 hPa 0,0 l/m 10,0 km/h (2 Bft) SW 217 0 min 21 W/m -4,0 C -7,1 C 14,5 km/h (3 Bft)
31.01.2021 09:42 -3,2 C 95 % 1003,9 hPa 0,0 l/m 9,3 km/h (2 Bft) S-SW 211 0 min 21 W/m -3,9 C -6,3 C 17,7 km/h (3 Bft)
31.01.2021 09:45 -3,2 C 95 % 1003,9 hPa 0,0 l/m 8,4 km/h (2 Bft) SW 220 0 min 21 W/m -3,9 C -5,4 C 12,9 km/h (3 Bft)
31.01.2021 09:48 -3,2 C 95 % 1003,9 hPa 0,0 l/m 9,3 km/h (2 Bft) W-SW 238 0 min 23 W/m -3,9 C -6,3 C 14,5 km/h (3 Bft)
31.01.2021 09:51 -3,1 C 95 % 1003,9 hPa 0,0 l/m 9,1 km/h (2 Bft) SW 223 0 min 23 W/m -3,8 C -6,0 C 14,5 km/h (3 Bft)
31.01.2021 09:54 -3,0 C 95 % 1004,0 hPa 0,0 l/m 8,8 km/h (2 Bft) SW 220 0 min 25 W/m -3,7 C -5,6 C 12,9 km/h (3 Bft)
31.01.2021 09:57 -3,0 C 95 % 1003,9 hPa 0,0 l/m 8,7 km/h (2 Bft) SW 219 0 min 26 W/m -3,7 C -5,5 C 12,9 km/h (3 Bft)
31.01.2021 10:00 -2,9 C 95 % 1003,9 hPa 0,0 l/m 9,1 km/h (2 Bft) SW 219 0 min 26 W/m -3,6 C -5,8 C 12,9 km/h (3 Bft)
31.01.2021 10:03 -2,8 C 95 % 1003,9 hPa 0,0 l/m 9,2 km/h (2 Bft) SW 219 0 min 28 W/m -3,5 C -5,8 C 12,9 km/h (3 Bft)
31.01.2021 10:06 -2,8 C 95 % 1003,9 hPa 0,0 l/m 10,2 km/h (2 Bft) SW 215 0 min 39 W/m -3,5 C -6,7 C 16,1 km/h (3 Bft)
31.01.2021 10:09 -2,7 C 95 % 1003,9 hPa 0,0 l/m 11,4 km/h (2 Bft) S-SW 211 0 min 44 W/m -3,4 C -7,6 C 16,1 km/h (3 Bft)
31.01.2021 10:12 -2,7 C 95 % 1003,9 hPa 0,0 l/m 10,8 km/h (2 Bft) SW 215 0 min 49 W/m -3,4 C -7,1 C 17,7 km/h (3 Bft)
31.01.2021 10:15 -2,6 C 95 % 1003,9 hPa 0,0 l/m 10,6 km/h (2 Bft) SW 215 0 min 51 W/m -3,3 C -6,8 C 14,5 km/h (3 Bft)
31.01.2021 10:18 -2,6 C 95 % 1004,0 hPa 0,0 l/m 10,2 km/h (2 Bft) SW 222 0 min 60 W/m -3,3 C -6,5 C 14,5 km/h (3 Bft)
31.01.2021 10:21 -2,5 C 95 % 1003,9 hPa 0,0 l/m 10,8 km/h (2 Bft) SW 232 0 min 70 W/m -3,2 C -6,9 C 16,1 km/h (3 Bft)
31.01.2021 10:24 -2,4 C 95 % 1003,9 hPa 0,0 l/m 11,5 km/h (2 Bft) SW 221 0 min 74 W/m -3,1 C -7,4 C 16,1 km/h (3 Bft)
31.01.2021 10:27 -2,3 C 95 % 1003,9 hPa 0,0 l/m 10,6 km/h (2 Bft) S-SW 213 0 min 81 W/m -3,0 C -6,5 C 14,5 km/h (3 Bft)
31.01.2021 10:30 -2,2 C 95 % 1003,9 hPa 0,0 l/m 11,5 km/h (2 Bft) SW 219 0 min 76 W/m -2,9 C -7,1 C 17,7 km/h (3 Bft)
31.01.2021 10:33 -2,1 C 95 % 1004,0 hPa 0,0 l/m 11,9 km/h (2 Bft) S-SW 213 0 min 74 W/m -2,8 C -7,3 C 17,7 km/h (3 Bft)
31.01.2021 10:36 -2,1 C 95 % 1004,0 hPa 0,0 l/m 10,0 km/h (2 Bft) SW 217 0 min 93 W/m -2,8 C -5,8 C 16,1 km/h (3 Bft)
31.01.2021 10:39 -2,0 C 95 % 1004,0 hPa 0,0 l/m 11,6 km/h (2 Bft) W-SW 238 0 min 97 W/m -2,7 C -7,0 C 17,7 km/h (3 Bft)
31.01.2021 10:42 -2,0 C 95 % 1004,0 hPa 0,0 l/m 10,6 km/h (2 Bft) SW 219 0 min 107 W/m -2,7 C -6,2 C 17,7 km/h (3 Bft)
31.01.2021 10:45 -1,9 C 95 % 1004,0 hPa 0,0 l/m 11,3 km/h (2 Bft) S-SW 212 0 min 102 W/m -2,6 C -6,6 C 16,1 km/h (3 Bft)
31.01.2021 10:48 -1,9 C 95 % 1004,0 hPa 0,0 l/m 10,3 km/h (2 Bft) SW 217 0 min 70 W/m -2,6 C -5,8 C 17,7 km/h (3 Bft)
31.01.2021 10:51 -1,8 C 95 % 1004,0 hPa 0,0 l/m 9,0 km/h (2 Bft) SW 229 0 min 58 W/m -2,5 C -4,5 C 12,9 km/h (3 Bft)
31.01.2021 10:54 -1,8 C 95 % 1004,0 hPa 0,0 l/m 9,1 km/h (2 Bft) SW 218 0 min 51 W/m -2,5 C -4,6 C 12,9 km/h (3 Bft)
31.01.2021 10:57 -1,8 C 95 % 1004,0 hPa 0,0 l/m 9,3 km/h (2 Bft) SW 222 0 min 51 W/m -2,5 C -4,8 C 12,9 km/h (3 Bft)
31.01.2021 11:00 -1,8 C 95 % 1004,0 hPa 0,0 l/m 9,4 km/h (2 Bft) SW 220 0 min 65 W/m -2,5 C -4,9 C 12,9 km/h (3 Bft)
31.01.2021 11:03 -1,8 C 95 % 1004,0 hPa 0,0 l/m 10,8 km/h (2 Bft) SW 216 0 min 86 W/m -2,5 C -6,1 C 14,5 km/h (3 Bft)
31.01.2021 11:06 -1,7 C 95 % 1004,1 hPa 0,0 l/m 10,2 km/h (2 Bft) S-SW 207 0 min 76 W/m -2,4 C -5,5 C 14,5 km/h (3 Bft)
31.01.2021 11:09 -1,7 C 95 % 1004,1 hPa 0,0 l/m 9,8 km/h (2 Bft) SW 234 0 min 83 W/m -2,4 C -5,2 C 14,5 km/h (3 Bft)
31.01.2021 11:12 -1,6 C 95 % 1004,0 hPa 0,0 l/m 9,5 km/h (2 Bft) W-SW 241 0 min 107 W/m -2,3 C -4,8 C 16,1 km/h (3 Bft)
31.01.2021 11:15 -1,4 C 95 % 1004,0 hPa 0,0 l/m 12,0 km/h (2 Bft) SW 226 0 min 156 W/m -2,1 C -6,6 C 20,9 km/h (4 Bft)
31.01.2021 11:18 -1,3 C 95 % 1004,0 hPa 0,0 l/m 12,6 km/h (3 Bft) W-SW 248 3 min 163 W/m -2,0 C -6,9 C 19,3 km/h (3 Bft)
31.01.2021 11:21 -1,2 C 95 % 1004,0 hPa 0,0 l/m 14,4 km/h (3 Bft) W-SW 244 0 min 91 W/m -1,9 C -8,1 C 22,5 km/h (4 Bft)
31.01.2021 11:24 -1,2 C 95 % 1004,0 hPa 0,0 l/m 13,1 km/h (3 Bft) S-SW 193 0 min 81 W/m -1,9 C -7,2 C 20,9 km/h (4 Bft)
31.01.2021 11:27 -1,2 C 95 % 1003,9 hPa 0,0 l/m 13,4 km/h (3 Bft) SW 215 0 min 88 W/m -1,9 C -7,4 C 19,3 km/h (3 Bft)
31.01.2021 11:30 -1,2 C 95 % 1003,9 hPa 0,0 l/m 13,2 km/h (3 Bft) SW 230 0 min 91 W/m -1,9 C -7,2 C 22,5 km/h (4 Bft)
31.01.2021 11:33 -1,1 C 95 % 1003,8 hPa 0,0 l/m 12,1 km/h (2 Bft) SW 232 0 min 88 W/m -1,8 C -6,3 C 17,7 km/h (3 Bft)
31.01.2021 11:36 -1,1 C 95 % 1003,8 hPa 0,0 l/m 11,5 km/h (2 Bft) SW 216 0 min 90 W/m -1,8 C -5,9 C 16,1 km/h (3 Bft)
31.01.2021 11:39 -1,1 C 95 % 1003,8 hPa 0,0 l/m 11,2 km/h (2 Bft) SW 217 0 min 102 W/m -1,8 C -5,7 C 16,1 km/h (3 Bft)
31.01.2021 11:42 -1,0 C 95 % 1003,7 hPa 0,0 l/m 11,2 km/h (2 Bft) SW 221 0 min 114 W/m -1,7 C -5,5 C 17,7 km/h (3 Bft)
31.01.2021 11:45 -0,9 C 95 % 1003,7 hPa 0,0 l/m 11,3 km/h (2 Bft) SW 225 0 min 113 W/m -1,6 C -5,5 C 17,7 km/h (3 Bft)
31.01.2021 11:48 -0,9 C 95 % 1003,7 hPa 0,0 l/m 12,1 km/h (2 Bft) SW 215 0 min 77 W/m -1,6 C -6,1 C 17,7 km/h (3 Bft)
31.01.2021 11:51 -0,9 C 94 % 1003,7 hPa 0,0 l/m 11,4 km/h (2 Bft) SW 233 0 min 70 W/m -1,7 C -5,6 C 17,7 km/h (3 Bft)
31.01.2021 11:54 -0,9 C 94 % 1003,7 hPa 0,0 l/m 12,2 km/h (2 Bft) S-SW 212 0 min 69 W/m -1,7 C -6,2 C 22,5 km/h (4 Bft)
31.01.2021 11:57 -0,8 C 94 % 1003,7 hPa 0,0 l/m 10,3 km/h (2 Bft) SW 219 0 min 77 W/m -1,6 C -4,6 C 19,3 km/h (3 Bft)
31.01.2021 12:00 -0,8 C 94 % 1003,7 hPa 0,0 l/m 11,3 km/h (2 Bft) S-SW 198 0 min 90 W/m -1,6 C -5,4 C 19,3 km/h (3 Bft)
31.01.2021 12:03 -0,8 C 94 % 1003,7 hPa 0,0 l/m 9,6 km/h (2 Bft) W-SW 238 0 min 98 W/m -1,6 C -4,0 C 14,5 km/h (3 Bft)
31.01.2021 12:06 -0,8 C 94 % 1003,7 hPa 0,0 l/m 12,4 km/h (2 Bft) S-SW 213 0 min 97 W/m -1,6 C -6,2 C 17,7 km/h (3 Bft)
31.01.2021 12:09 -0,7 C 94 % 1003,7 hPa 0,0 l/m 11,6 km/h (2 Bft) SW 217 0 min 100 W/m -1,5 C -5,5 C 16,1 km/h (3 Bft)
31.01.2021 12:12 -0,7 C 94 % 1003,7 hPa 0,0 l/m 11,5 km/h (2 Bft) SW 234 0 min 107 W/m -1,5 C -5,4 C 17,7 km/h (3 Bft)
31.01.2021 12:15 -0,7 C 94 % 1003,7 hPa 0,0 l/m 10,2 km/h (2 Bft) SW 222 0 min 111 W/m -1,5 C -4,4 C 16,1 km/h (3 Bft)
31.01.2021 12:18 -0,7 C 94 % 1003,7 hPa 0,0 l/m 8,8 km/h (2 Bft) SW 227 0 min 127 W/m -1,5 C -3,2 C 11,3 km/h (2 Bft)
31.01.2021 12:21 -0,6 C 94 % 1003,7 hPa 0,0 l/m 9,4 km/h (2 Bft) SW 225 0 min 178 W/m -1,4 C -3,6 C 14,5 km/h (3 Bft)
31.01.2021 12:24 -0,5 C 94 % 1003,6 hPa 0,0 l/m 9,1 km/h (2 Bft) SW 219 3 min 299 W/m -1,3 C -3,2 C 16,1 km/h (3 Bft)
31.01.2021 12:27 -0,3 C 94 % 1003,6 hPa 0,0 l/m 7,3 km/h (2 Bft) SW 224 3 min 320 W/m -1,1 C -1,2 C 12,9 km/h (3 Bft)
31.01.2021 12:30 -0,2 C 94 % 1003,6 hPa 0,0 l/m 9,0 km/h (2 Bft) S-SW 210 3 min 301 W/m -1,0 C -2,8 C 11,3 km/h (2 Bft)
31.01.2021 12:33 -0,1 C 94 % 1003,5 hPa 0,0 l/m 9,7 km/h (2 Bft) S-SW 210 3 min 260 W/m -0,9 C -3,3 C 9,7 km/h (2 Bft)
31.01.2021 12:36 0,1 C 93 % 1003,5 hPa 0,0 l/m 8,3 km/h (2 Bft) SW 223 3 min 258 W/m -0,9 C -1,8 C 9,7 km/h (2 Bft)
31.01.2021 12:39 0,2 C 93 % 1003,4 hPa 0,0 l/m 9,0 km/h (2 Bft) SW 223 3 min 271 W/m -0,8 C -2,4 C 11,3 km/h (2 Bft)
31.01.2021 12:42 0,2 C 92 % 1003,4 hPa 0,0 l/m 9,5 km/h (2 Bft) SW 224 3 min 251 W/m -0,9 C -2,8 C 12,9 km/h (3 Bft)
31.01.2021 12:45 0,2 C 92 % 1003,4 hPa 0,0 l/m 8,1 km/h (2 Bft) SW 223 3 min 264 W/m -0,9 C -1,5 C 11,3 km/h (2 Bft)
31.01.2021 12:48 0,2 C 92 % 1003,4 hPa 0,0 l/m 5,3 km/h (1 Bft) SW 223 3 min 227 W/m -0,9 C 0,2 C 8,0 km/h (2 Bft)
31.01.2021 12:51 0,2 C 92 % 1003,4 hPa 0,0 l/m 5,6 km/h (2 Bft) SW 223 3 min 225 W/m -0,9 C 0,2 C 9,7 km/h (2 Bft)
31.01.2021 12:54 0,2 C 91 % 1003,4 hPa 0,0 l/m 6,7 km/h (2 Bft) SW 219 3 min 257 W/m -1,1 C -0,1 C 9,7 km/h (2 Bft)
31.01.2021 12:57 0,1 C 91 % 1003,4 hPa 0,0 l/m 6,4 km/h (2 Bft) SW 217 3 min 278 W/m -1,2 C 0,1 C 9,7 km/h (2 Bft)
31.01.2021 13:00 0,1 C 90 % 1003,3 hPa 0,0 l/m 6,8 km/h (2 Bft) SW 218 3 min 267 W/m -1,3 C -0,3 C 9,7 km/h (2 Bft)
31.01.2021 13:03 0,1 C 90 % 1003,3 hPa 0,0 l/m 6,5 km/h (2 Bft) SW 218 3 min 223 W/m -1,3 C 0,0 C 11,3 km/h (2 Bft)
31.01.2021 13:06 0,1 C 90 % 1003,3 hPa 0,0 l/m 6,4 km/h (2 Bft) SW 217 3 min 213 W/m -1,3 C 0,1 C 9,7 km/h (2 Bft)
31.01.2021 13:09 0,1 C 90 % 1003,3 hPa 0,0 l/m 5,9 km/h (2 Bft) SW 216 3 min 248 W/m -1,3 C 0,1 C 9,7 km/h (2 Bft)
31.01.2021 13:12 0,1 C 90 % 1003,3 hPa 0,0 l/m 7,0 km/h (2 Bft) SW 215 3 min 279 W/m -1,3 C -0,5 C 9,7 km/h (2 Bft)
31.01.2021 13:15 0,2 C 90 % 1003,3 hPa 0,0 l/m 7,0 km/h (2 Bft) SW 215 3 min 279 W/m -1,2 C -0,4 C 9,7 km/h (2 Bft)
31.01.2021 13:18 0,2 C 89 % 1003,3 hPa 0,0 l/m 7,2 km/h (2 Bft) SW 215 3 min 264 W/m -1,4 C -0,6 C 9,7 km/h (2 Bft)
31.01.2021 13:21 0,2 C 89 % 1003,3 hPa 0,0 l/m 6,8 km/h (2 Bft) SW 217 3 min 221 W/m -1,4 C -0,2 C 11,3 km/h (2 Bft)
31.01.2021 13:24 0,3 C 89 % 1003,2 hPa 0,0 l/m 6,2 km/h (2 Bft) SW 217 3 min 223 W/m -1,3 C 0,3 C 8,0 km/h (2 Bft)
31.01.2021 13:27 0,3 C 89 % 1003,1 hPa 0,0 l/m 4,4 km/h (1 Bft) SW 217 3 min 237 W/m -1,3 C 0,3 C 9,7 km/h (2 Bft)
31.01.2021 13:30 0,4 C 89 % 1003,1 hPa 0,0 l/m 5,6 km/h (2 Bft) SW 217 3 min 230 W/m -1,2 C 0,4 C 8,0 km/h (2 Bft)
31.01.2021 13:33 0,4 C 89 % 1003,1 hPa 0,0 l/m 7,1 km/h (2 Bft) SW 218 3 min 202 W/m -1,2 C -0,3 C 11,3 km/h (2 Bft)
31.01.2021 13:36 0,5 C 88 % 1003,0 hPa 0,0 l/m 6,7 km/h (2 Bft) SW 218 3 min 171 W/m -1,3 C 0,2 C 11,3 km/h (2 Bft)
31.01.2021 13:39 0,5 C 88 % 1003,0 hPa 0,0 l/m 5,4 km/h (2 Bft) SW 218 3 min 181 W/m -1,3 C 0,5 C 8,0 km/h (2 Bft)
31.01.2021 13:42 0,6 C 88 % 1002,9 hPa 0,0 l/m 5,9 km/h (2 Bft) SW 218 3 min 211 W/m -1,2 C 0,6 C 9,7 km/h (2 Bft)
31.01.2021 13:45 0,6 C 87 % 1002,8 hPa 0,0 l/m 5,8 km/h (2 Bft) SW 218 3 min 229 W/m -1,3 C 0,6 C 8,0 km/h (2 Bft)
31.01.2021 13:48 0,7 C 87 % 1002,8 hPa 0,0 l/m 7,1 km/h (2 Bft) SW 218 3 min 197 W/m -1,2 C -0,0 C 12,9 km/h (3 Bft)
31.01.2021 13:51 0,7 C 87 % 1002,7 hPa 0,0 l/m 8,5 km/h (2 Bft) SW 218 3 min 197 W/m -1,2 C -1,4 C 12,9 km/h (3 Bft)
31.01.2021 13:54 0,7 C 86 % 1002,8 hPa 0,0 l/m 7,5 km/h (2 Bft) SW 218 3 min 204 W/m -1,4 C -0,4 C 11,3 km/h (2 Bft)
31.01.2021 13:57 0,7 C 86 % 1002,7 hPa 0,0 l/m 6,2 km/h (2 Bft) SW 218 3 min 190 W/m -1,4 C 0,7 C 9,7 km/h (2 Bft)
31.01.2021 14:00 0,7 C 86 % 1002,7 hPa 0,0 l/m 6,8 km/h (2 Bft) SW 219 3 min 162 W/m -1,4 C 0,3 C 11,3 km/h (2 Bft)
31.01.2021 14:03 0,7 C 86 % 1002,7 hPa 0,0 l/m 6,8 km/h (2 Bft) SW 219 3 min 167 W/m -1,4 C 0,3 C 11,3 km/h (2 Bft)
31.01.2021 14:06 0,7 C 86 % 1002,6 hPa 0,0 l/m 4,8 km/h (1 Bft) SW 219 3 min 158 W/m -1,4 C 0,7 C 6,4 km/h (2 Bft)
31.01.2021 14:09 0,7 C 85 % 1002,6 hPa 0,0 l/m 5,4 km/h (2 Bft) SW 219 0 min 144 W/m -1,5 C 0,7 C 9,7 km/h (2 Bft)
31.01.2021 14:12 0,7 C 85 % 1002,6 hPa 0,2 l/m 5,1 km/h (1 Bft) SW 219 0 min 132 W/m -1,5 C 0,7 C 11,3 km/h (2 Bft)
31.01.2021 14:15 0,7 C 85 % 1002,6 hPa 0,0 l/m 6,7 km/h (2 Bft) SW 219 0 min 139 W/m -1,5 C 0,4 C 12,9 km/h (3 Bft)
31.01.2021 14:18 0,6 C 84 % 1002,5 hPa 0,0 l/m 7,7 km/h (2 Bft) SW 219 0 min 139 W/m -1,8 C -0,7 C 11,3 km/h (2 Bft)
31.01.2021 14:21 0,6 C 84 % 1002,5 hPa 0,0 l/m 7,3 km/h (2 Bft) SW 219 3 min 156 W/m -1,8 C -0,3 C 11,3 km/h (2 Bft)
31.01.2021 14:24 0,6 C 83 % 1002,4 hPa 0,0 l/m 7,5 km/h (2 Bft) SW 219 3 min 153 W/m -1,9 C -0,5 C 9,7 km/h (2 Bft)
31.01.2021 14:27 0,6 C 83 % 1002,4 hPa 0,0 l/m 7,5 km/h (2 Bft) SW 219 3 min 176 W/m -1,9 C -0,5 C 11,3 km/h (2 Bft)
31.01.2021 14:30 0,6 C 83 % 1002,4 hPa 0,0 l/m 7,8 km/h (2 Bft) SW 219 3 min 174 W/m -1,9 C -0,8 C 11,3 km/h (2 Bft)
31.01.2021 14:33 0,6 C 83 % 1002,3 hPa 0,0 l/m 6,3 km/h (2 Bft) SW 219 3 min 185 W/m -1,9 C 0,6 C 8,0 km/h (2 Bft)
31.01.2021 14:36 0,6 C 83 % 1002,3 hPa 0,0 l/m 5,5 km/h (2 Bft) SW 219 3 min 153 W/m -1,9 C 0,6 C 8,0 km/h (2 Bft)
31.01.2021 14:39 0,7 C 83 % 1002,2 hPa 0,0 l/m 4,2 km/h (1 Bft) SW 219 0 min 128 W/m -1,8 C 0,7 C 6,4 km/h (2 Bft)
31.01.2021 14:42 0,7 C 83 % 1002,1 hPa 0,0 l/m 4,2 km/h (1 Bft) SW 219 0 min 113 W/m -1,8 C 0,7 C 8,0 km/h (2 Bft)
31.01.2021 14:45 0,6 C 83 % 1002,1 hPa 0,0 l/m 3,3 km/h (1 Bft) SW 219 0 min 114 W/m -1,9 C 0,6 C 6,4 km/h (2 Bft)
31.01.2021 14:48 0,6 C 83 % 1002,1 hPa 0,0 l/m 3,3 km/h (1 Bft) SW 219 0 min 130 W/m -1,9 C 0,6 C 4,8 km/h (1 Bft)
31.01.2021 14:51 0,5 C 83 % 1002,1 hPa 0,0 l/m 3,6 km/h (1 Bft) SW 219 0 min 127 W/m -2,0 C 0,5 C 6,4 km/h (2 Bft)
31.01.2021 14:54 0,4 C 83 % 1002,0 hPa 0,0 l/m 3,6 km/h (1 Bft) SW 219 0 min 113 W/m -2,1 C 0,4 C 4,8 km/h (1 Bft)
31.01.2021 14:57 0,3 C 83 % 1002,0 hPa 0,0 l/m 3,5 km/h (1 Bft) SW 219 0 min 104 W/m -2,2 C 0,3 C 6,4 km/h (2 Bft)
31.01.2021 15:00 0,2 C 83 % 1002,0 hPa 0,0 l/m 3,8 km/h (1 Bft) SW 219 0 min 107 W/m -2,3 C 0,2 C 4,8 km/h (1 Bft)
31.01.2021 15:03 0,1 C 83 % 1002,0 hPa 0,0 l/m 4,0 km/h (1 Bft) SW 219 0 min 113 W/m -2,4 C 0,1 C 4,8 km/h (1 Bft)
31.01.2021 15:06 0,1 C 83 % 1001,9 hPa 0,0 l/m 4,4 km/h (1 Bft) SW 219 3 min 127 W/m -2,4 C 0,1 C 6,4 km/h (2 Bft)
31.01.2021 15:09 0,1 C 83 % 1001,9 hPa 0,0 l/m 3,4 km/h (1 Bft) SW 219 0 min 114 W/m -2,4 C 0,1 C 6,4 km/h (2 Bft)
31.01.2021 15:12 0,0 C 84 % 1001,9 hPa 0,0 l/m 3,6 km/h (1 Bft) SW 219 0 min 109 W/m -2,4 C 0,0 C 6,4 km/h (2 Bft)
31.01.2021 15:15 -0,1 C 84 % 1001,9 hPa 0,0 l/m 4,4 km/h (1 Bft) SW 218 0 min 93 W/m -2,5 C -0,1 C 8,0 km/h (2 Bft)
31.01.2021 15:18 -0,1 C 84 % 1001,9 hPa 0,0 l/m 6,0 km/h (2 Bft) SW 217 0 min 95 W/m -2,5 C -0,1 C 8,0 km/h (2 Bft)
31.01.2021 15:21 -0,2 C 84 % 1001,8 hPa 0,0 l/m 4,6 km/h (1 Bft) SW 217 0 min 90 W/m -2,6 C -0,2 C 8,0 km/h (2 Bft)
31.01.2021 15:24 -0,2 C 84 % 1001,8 hPa 0,0 l/m 5,4 km/h (2 Bft) SW 216 0 min 77 W/m -2,6 C -0,2 C 8,0 km/h (2 Bft)
31.01.2021 15:27 -0,3 C 85 % 1001,7 hPa 0,0 l/m 4,5 km/h (1 Bft) SW 217 0 min 72 W/m -2,5 C -0,3 C 6,4 km/h (2 Bft)
31.01.2021 15:30 -0,4 C 85 % 1001,6 hPa 0,0 l/m 5,3 km/h (1 Bft) SW 216 0 min 79 W/m -2,6 C -0,4 C 8,0 km/h (2 Bft)
31.01.2021 15:33 -0,4 C 85 % 1001,6 hPa 0,0 l/m 4,7 km/h (1 Bft) SW 216 0 min 83 W/m -2,6 C -0,4 C 6,4 km/h (2 Bft)
31.01.2021 15:36 -0,4 C 85 % 1001,6 hPa 0,0 l/m 4,5 km/h (1 Bft) SW 217 0 min 70 W/m -2,6 C -0,4 C 6,4 km/h (2 Bft)
31.01.2021 15:39 -0,5 C 85 % 1001,6 hPa 0,0 l/m 3,0 km/h (1 Bft) SW 217 0 min 70 W/m -2,7 C -0,5 C 4,8 km/h (1 Bft)
31.01.2021 15:42 -0,5 C 85 % 1001,6 hPa 0,0 l/m 4,1 km/h (1 Bft) SW 217 0 min 67 W/m -2,7 C -0,5 C 6,4 km/h (2 Bft)
31.01.2021 15:45 -0,5 C 85 % 1001,5 hPa 0,0 l/m 3,0 km/h (1 Bft) SW 216 0 min 63 W/m -2,7 C -0,5 C 4,8 km/h (1 Bft)
31.01.2021 15:48 -0,6 C 86 % 1001,5 hPa 0,0 l/m 3,4 km/h (1 Bft) SW 217 0 min 62 W/m -2,6 C -0,6 C 4,8 km/h (1 Bft)
31.01.2021 15:51 -0,6 C 86 % 1001,5 hPa 0,0 l/m 3,6 km/h (1 Bft) SW 217 0 min 62 W/m -2,6 C -0,6 C 4,8 km/h (1 Bft)
31.01.2021 15:54 -0,6 C 86 % 1001,5 hPa 0,0 l/m 1,8 km/h (1 Bft) SW 216 0 min 63 W/m -2,6 C -0,6 C 3,2 km/h (1 Bft)
31.01.2021 15:57 -0,6 C 86 % 1001,4 hPa 0,0 l/m 3,0 km/h (1 Bft) SW 217 0 min 63 W/m -2,6 C -0,6 C 4,8 km/h (1 Bft)
31.01.2021 16:00 -0,6 C 86 % 1001,4 hPa 0,0 l/m 2,7 km/h (1 Bft) SW 217 0 min 63 W/m -2,6 C -0,6 C 4,8 km/h (1 Bft)
31.01.2021 16:03 -0,6 C 86 % 1001,3 hPa 0,0 l/m 2,3 km/h (1 Bft) SW 217 0 min 60 W/m -2,6 C -0,6 C 4,8 km/h (1 Bft)
31.01.2021 16:06 -0,6 C 86 % 1001,3 hPa 0,0 l/m 2,2 km/h (1 Bft) SW 216 3 min 60 W/m -2,6 C -0,6 C 4,8 km/h (1 Bft)
31.01.2021 16:09 -0,6 C 86 % 1001,3 hPa 0,0 l/m 2,7 km/h (1 Bft) SW 216 3 min 58 W/m -2,6 C -0,6 C 4,8 km/h (1 Bft)
31.01.2021 16:12 -0,6 C 86 % 1001,3 hPa 0,0 l/m 3,7 km/h (1 Bft) SW 217 0 min 51 W/m -2,6 C -0,6 C 6,4 km/h (2 Bft)
31.01.2021 16:15 -0,7 C 86 % 1001,2 hPa 0,0 l/m 4,0 km/h (1 Bft) SW 216 0 min 49 W/m -2,7 C -0,7 C 6,4 km/h (2 Bft)
31.01.2021 16:18 -0,7 C 86 % 1001,2 hPa 0,0 l/m 3,2 km/h (1 Bft) SW 217 0 min 44 W/m -2,7 C -0,7 C 4,8 km/h (1 Bft)
31.01.2021 16:21 -0,8 C 86 % 1001,2 hPa 0,0 l/m 3,7 km/h (1 Bft) SW 216 0 min 40 W/m -2,8 C -0,8 C 4,8 km/h (1 Bft)
31.01.2021 16:24 -0,8 C 86 % 1001,3 hPa 0,0 l/m 3,4 km/h (1 Bft) SW 217 3 min 39 W/m -2,8 C -0,8 C 4,8 km/h (1 Bft)
31.01.2021 16:27 -0,9 C 85 % 1001,2 hPa 0,0 l/m 3,3 km/h (1 Bft) SW 217 3 min 39 W/m -3,1 C -0,9 C 4,8 km/h (1 Bft)
31.01.2021 16:30 -1,0 C 85 % 1001,2 hPa 0,0 l/m 3,1 km/h (1 Bft) SW 216 3 min 35 W/m -3,2 C -1,0 C 4,8 km/h (1 Bft)
31.01.2021 16:33 -1,1 C 85 % 1001,2 hPa 0,0 l/m 3,8 km/h (1 Bft) SW 217 3 min 32 W/m -3,3 C -1,1 C 4,8 km/h (1 Bft)
31.01.2021 16:36 -1,2 C 85 % 1001,1 hPa 0,0 l/m 3,1 km/h (1 Bft) SW 216 3 min 30 W/m -3,4 C -1,2 C 4,8 km/h (1 Bft)
31.01.2021 16:39 -1,2 C 85 % 1001,1 hPa 0,0 l/m 2,7 km/h (1 Bft) SW 216 3 min 25 W/m -3,4 C -1,2 C 4,8 km/h (1 Bft)
31.01.2021 16:42 -1,3 C 85 % 1001,1 hPa 0,0 l/m 2,8 km/h (1 Bft) SW 216 3 min 23 W/m -3,5 C -1,3 C 4,8 km/h (1 Bft)
31.01.2021 16:45 -1,3 C 85 % 1001,0 hPa 0,0 l/m 2,9 km/h (1 Bft) SW 217 3 min 21 W/m -3,5 C -1,3 C 4,8 km/h (1 Bft)
31.01.2021 16:48 -1,3 C 85 % 1001,0 hPa 0,0 l/m 3,1 km/h (1 Bft) SW 217 3 min 19 W/m -3,5 C -1,3 C 4,8 km/h (1 Bft)
31.01.2021 16:51 -1,4 C 85 % 1001,0 hPa 0,0 l/m 2,7 km/h (1 Bft) SW 217 0 min 16 W/m -3,6 C -1,4 C 4,8 km/h (1 Bft)
31.01.2021 16:54 -1,4 C 85 % 1001,0 hPa 0,0 l/m 3,4 km/h (1 Bft) SW 217 0 min 14 W/m -3,6 C -1,4 C 4,8 km/h (1 Bft)
31.01.2021 16:57 -1,5 C 85 % 1000,9 hPa 0,0 l/m 1,3 km/h (1 Bft) SW 216 0 min 12 W/m -3,7 C -1,5 C 3,2 km/h (1 Bft)
31.01.2021 17:00 -1,5 C 85 % 1000,9 hPa 0,0 l/m 0,0 km/h (0 Bft) SW 216 0 min 11 W/m -3,7 C -1,5 C 0,0 km/h (0 Bft)
31.01.2021 17:03 -1,6 C 85 % 1000,9 hPa 0,0 l/m 1,7 km/h (1 Bft) SW 216 0 min 9 W/m -3,8 C -1,6 C 4,8 km/h (1 Bft)
31.01.2021 17:06 -1,6 C 85 % 1000,9 hPa 0,0 l/m 4,0 km/h (1 Bft) SW 216 0 min 0 W/m -3,8 C -1,6 C 4,8 km/h (1 Bft)
31.01.2021 17:09 -1,7 C 85 % 1000,9 hPa 0,0 l/m 3,2 km/h (1 Bft) SW 216 0 min 0 W/m -3,9 C -1,7 C 4,8 km/h (1 Bft)
31.01.2021 17:12 -1,8 C 85 % 1000,8 hPa 0,0 l/m 2,0 km/h (1 Bft) SW 217 0 min 0 W/m -4,0 C -1,8 C 4,8 km/h (1 Bft)
31.01.2021 17:15 -1,8 C 85 % 1000,8 hPa 0,0 l/m 2,6 km/h (1 Bft) SW 216 0 min 0 W/m -4,0 C -1,8 C 4,8 km/h (1 Bft)
31.01.2021 17:18 -1,9 C 85 % 1000,8 hPa 0,0 l/m 2,8 km/h (1 Bft) SW 217 0 min 0 W/m -4,1 C -1,9 C 4,8 km/h (1 Bft)
31.01.2021 17:21 -1,9 C 85 % 1000,8 hPa 0,0 l/m 1,8 km/h (1 Bft) SW 216 0 min 0 W/m -4,1 C -1,9 C 3,2 km/h (1 Bft)
31.01.2021 17:24 -2,0 C 85 % 1000,7 hPa 0,0 l/m 1,2 km/h (1 Bft) SW 216 0 min 0 W/m -4,2 C -2,0 C 3,2 km/h (1 Bft)
31.01.2021 17:27 -2,1 C 85 % 1000,8 hPa 0,0 l/m 1,9 km/h (1 Bft) SW 216 0 min 0 W/m -4,3 C -2,1 C 3,2 km/h (1 Bft)
31.01.2021 17:30 -2,1 C 85 % 1000,7 hPa 0,0 l/m 2,6 km/h (1 Bft) SW 217 0 min 0 W/m -4,3 C -2,1 C 4,8 km/h (1 Bft)
31.01.2021 17:33 -2,1 C 85 % 1000,7 hPa 0,0 l/m 1,2 km/h (1 Bft) SW 217 0 min 0 W/m -4,3 C -2,1 C 3,2 km/h (1 Bft)
31.01.2021 17:36 -2,2 C 85 % 1000,7 hPa 0,0 l/m 2,0 km/h (1 Bft) SW 216 0 min 0 W/m -4,4 C -2,2 C 4,8 km/h (1 Bft)
31.01.2021 17:39 -2,2 C 85 % 1000,8 hPa 0,0 l/m 2,8 km/h (1 Bft) SW 216 0 min 0 W/m -4,4 C -2,2 C 6,4 km/h (2 Bft)
31.01.2021 17:42 -2,3 C 85 % 1000,8 hPa 0,0 l/m 2,5 km/h (1 Bft) SW 216 0 min 0 W/m -4,5 C -2,3 C 4,8 km/h (1 Bft)
31.01.2021 17:45 -2,3 C 85 % 1000,8 hPa 0,0 l/m 3,8 km/h (1 Bft) SW 217 0 min 0 W/m -4,5 C -2,3 C 6,4 km/h (2 Bft)
31.01.2021 17:48 -2,4 C 85 % 1000,8 hPa 0,0 l/m 3,2 km/h (1 Bft) SW 217 0 min 0 W/m -4,6 C -2,4 C 6,4 km/h (2 Bft)
31.01.2021 17:51 -2,5 C 85 % 1000,7 hPa 0,0 l/m 3,7 km/h (1 Bft) SW 216 0 min 0 W/m -4,7 C -2,5 C 6,4 km/h (2 Bft)
31.01.2021 17:54 -2,6 C 85 % 1000,7 hPa 0,0 l/m 3,7 km/h (1 Bft) SW 216 0 min 0 W/m -4,8 C -2,6 C 4,8 km/h (1 Bft)
31.01.2021 17:57 -2,6 C 85 % 1000,8 hPa 0,0 l/m 2,5 km/h (1 Bft) SW 216 0 min 0 W/m -4,8 C -2,6 C 4,8 km/h (1 Bft)
31.01.2021 18:00 -2,7 C 85 % 1000,6 hPa 0,0 l/m 2,6 km/h (1 Bft) SW 216 0 min 0 W/m -4,9 C -2,7 C 4,8 km/h (1 Bft)
31.01.2021 18:03 -2,7 C 85 % 1000,6 hPa 0,0 l/m 2,8 km/h (1 Bft) SW 216 0 min 0 W/m -4,9 C -2,7 C 4,8 km/h (1 Bft)
31.01.2021 18:06 -2,7 C 85 % 1000,6 hPa 0,0 l/m 3,9 km/h (1 Bft) SW 215 0 min 0 W/m -4,9 C -2,7 C 9,7 km/h (2 Bft)
31.01.2021 18:09 -2,8 C 86 % 1000,6 hPa 0,0 l/m 2,6 km/h (1 Bft) SW 215 0 min 0 W/m -4,8 C -2,8 C 6,4 km/h (2 Bft)
31.01.2021 18:12 -2,8 C 86 % 1000,6 hPa 0,0 l/m 4,0 km/h (1 Bft) SW 215 0 min 0 W/m -4,8 C -2,8 C 6,4 km/h (2 Bft)
31.01.2021 18:15 -2,8 C 86 % 1000,5 hPa 0,0 l/m 3,5 km/h (1 Bft) SW 215 0 min 0 W/m -4,8 C -2,8 C 6,4 km/h (2 Bft)
31.01.2021 18:18 -2,8 C 86 % 1000,5 hPa 0,0 l/m 3,1 km/h (1 Bft) SW 215 0 min 0 W/m -4,8 C -2,8 C 4,8 km/h (1 Bft)
31.01.2021 18:21 -2,8 C 86 % 1000,4 hPa 0,0 l/m 3,0 km/h (1 Bft) SW 215 0 min 0 W/m -4,8 C -2,8 C 4,8 km/h (1 Bft)
31.01.2021 18:24 -2,8 C 86 % 1000,4 hPa 0,0 l/m 3,3 km/h (1 Bft) SW 215 0 min 0 W/m -4,8 C -2,8 C 6,4 km/h (2 Bft)
31.01.2021 18:27 -2,8 C 86 % 1000,4 hPa 0,0 l/m 4,6 km/h (1 Bft) SW 215 0 min 0 W/m -4,8 C -2,8 C 6,4 km/h (2 Bft)
31.01.2021 18:30 -2,8 C 87 % 1000,4 hPa 0,0 l/m 5,2 km/h (1 Bft) SW 215 0 min 0 W/m -4,7 C -2,8 C 8,0 km/h (2 Bft)
31.01.2021 18:33 -2,8 C 87 % 1000,3 hPa 0,0 l/m 4,9 km/h (1 Bft) SW 215 0 min 0 W/m -4,7 C -2,8 C 9,7 km/h (2 Bft)
31.01.2021 18:36 -2,8 C 87 % 1000,3 hPa 0,0 l/m 4,9 km/h (1 Bft) SW 215 0 min 0 W/m -4,7 C -2,8 C 8,0 km/h (2 Bft)
31.01.2021 18:39 -2,8 C 87 % 1000,2 hPa 0,0 l/m 4,2 km/h (1 Bft) SW 215 0 min 0 W/m -4,7 C -2,8 C 8,0 km/h (2 Bft)
31.01.2021 18:42 -2,8 C 88 % 1000,2 hPa 0,0 l/m 4,1 km/h (1 Bft) SW 215 0 min 0 W/m -4,5 C -2,8 C 8,0 km/h (2 Bft)
31.01.2021 18:45 -2,8 C 87 % 1000,2 hPa 0,0 l/m 2,6 km/h (1 Bft) SW 215 0 min 0 W/m -4,7 C -2,8 C 4,8 km/h (1 Bft)
31.01.2021 18:48 -2,8 C 88 % 1000,2 hPa 0,0 l/m 2,1 km/h (1 Bft) SW 215 0 min 0 W/m -4,5 C -2,8 C 4,8 km/h (1 Bft)
31.01.2021 18:51 -2,8 C 88 % 1000,2 hPa 0,0 l/m 2,8 km/h (1 Bft) SW 215 0 min 0 W/m -4,5 C -2,8 C 4,8 km/h (1 Bft)
31.01.2021 18:54 -2,8 C 88 % 1000,2 hPa 0,0 l/m 3,7 km/h (1 Bft) SW 215 0 min 0 W/m -4,5 C -2,8 C 4,8 km/h (1 Bft)
31.01.2021 18:57 -2,8 C 88 % 1000,2 hPa 0,0 l/m 3,1 km/h (1 Bft) SW 215 0 min 0 W/m -4,5 C -2,8 C 4,8 km/h (1 Bft)
31.01.2021 19:00 -2,9 C 88 % 1000,3 hPa 0,0 l/m 3,3 km/h (1 Bft) SW 215 0 min 0 W/m -4,6 C -2,9 C 6,4 km/h (2 Bft)
31.01.2021 19:03 -2,9 C 88 % 1000,3 hPa 0,0 l/m 4,2 km/h (1 Bft) SW 215 0 min 0 W/m -4,6 C -2,9 C 8,0 km/h (2 Bft)
31.01.2021 19:06 -2,9 C 88 % 1000,3 hPa 0,0 l/m 5,3 km/h (1 Bft) SW 215 0 min 0 W/m -4,6 C -2,9 C 8,0 km/h (2 Bft)
31.01.2021 19:09 -2,9 C 88 % 1000,3 hPa 0,0 l/m 5,2 km/h (1 Bft) SW 214 0 min 0 W/m -4,6 C -2,9 C 8,0 km/h (2 Bft)
31.01.2021 19:12 -2,9 C 88 % 1000,3 hPa 0,0 l/m 6,2 km/h (2 Bft) S-SW 213 0 min 0 W/m -4,6 C -2,9 C 9,7 km/h (2 Bft)
31.01.2021 19:15 -3,0 C 88 % 1000,2 hPa 0,0 l/m 5,4 km/h (2 Bft) S-SW 213 0 min 0 W/m -4,7 C -3,0 C 9,7 km/h (2 Bft)
31.01.2021 19:18 -3,0 C 88 % 1000,2 hPa 0,0 l/m 5,2 km/h (1 Bft) S-SW 213 0 min 0 W/m -4,7 C -3,0 C 8,0 km/h (2 Bft)
31.01.2021 19:21 -3,1 C 88 % 1000,2 hPa 0,0 l/m 4,9 km/h (1 Bft) S-SW 213 0 min 0 W/m -4,8 C -3,1 C 8,0 km/h (2 Bft)
31.01.2021 19:24 -3,2 C 89 % 1000,2 hPa 0,0 l/m 4,3 km/h (1 Bft) S-SW 213 0 min 0 W/m -4,7 C -3,2 C 8,0 km/h (2 Bft)
31.01.2021 19:27 -3,2 C 89 % 1000,1 hPa 0,0 l/m 4,9 km/h (1 Bft) S-SW 213 0 min 0 W/m -4,7 C -3,2 C 9,7 km/h (2 Bft)
31.01.2021 19:30 -3,2 C 89 % 1000,1 hPa 0,0 l/m 4,2 km/h (1 Bft) S-SW 213 0 min 0 W/m -4,7 C -3,2 C 8,0 km/h (2 Bft)
31.01.2021 19:33 -3,2 C 89 % 1000,1 hPa 0,0 l/m 5,2 km/h (1 Bft) S-SW 213 0 min 0 W/m -4,7 C -3,2 C 9,7 km/h (2 Bft)
31.01.2021 19:36 -3,2 C 89 % 1000,1 hPa 0,0 l/m 4,8 km/h (1 Bft) S-SW 213 0 min 0 W/m -4,7 C -3,2 C 8,0 km/h (2 Bft)
31.01.2021 19:39 -3,2 C 89 % 1000,1 hPa 0,0 l/m 3,2 km/h (1 Bft) S-SW 213 0 min 0 W/m -4,7 C -3,2 C 8,0 km/h (2 Bft)
31.01.2021 19:42 -3,2 C 89 % 1000,1 hPa 0,0 l/m 3,7 km/h (1 Bft) S-SW 213 0 min 0 W/m -4,7 C -3,2 C 6,4 km/h (2 Bft)
31.01.2021 19:45 -3,2 C 89 % 1000,1 hPa 0,0 l/m 3,4 km/h (1 Bft) S-SW 213 0 min 0 W/m -4,7 C -3,2 C 6,4 km/h (2 Bft)
31.01.2021 19:48 -3,2 C 89 % 1000,1 hPa 0,0 l/m 4,7 km/h (1 Bft) S-SW 212 0 min 0 W/m -4,7 C -3,2 C 9,7 km/h (2 Bft)
31.01.2021 19:51 -3,2 C 89 % 1000,1 hPa 0,0 l/m 3,2 km/h (1 Bft) S-SW 212 0 min 0 W/m -4,7 C -3,2 C 4,8 km/h (1 Bft)
31.01.2021 19:54 -3,2 C 89 % 1000,1 hPa 0,0 l/m 4,0 km/h (1 Bft) S-SW 212 0 min 0 W/m -4,7 C -3,2 C 6,4 km/h (2 Bft)
31.01.2021 19:57 -3,3 C 89 % 1000,0 hPa 0,0 l/m 3,5 km/h (1 Bft) S-SW 212 0 min 0 W/m -4,8 C -3,3 C 6,4 km/h (2 Bft)
31.01.2021 20:00 -3,3 C 89 % 1000,0 hPa 0,0 l/m 4,5 km/h (1 Bft) S-SW 211 0 min 0 W/m -4,8 C -3,3 C 11,3 km/h (2 Bft)
31.01.2021 20:03 -3,3 C 89 % 1000,0 hPa 0,0 l/m 4,4 km/h (1 Bft) S-SW 211 0 min 0 W/m -4,8 C -3,3 C 6,4 km/h (2 Bft)
31.01.2021 20:06 -3,3 C 90 % 1000,0 hPa 0,0 l/m 4,5 km/h (1 Bft) S-SW 210 0 min 0 W/m -4,7 C -3,3 C 9,7 km/h (2 Bft)
31.01.2021 20:09 -3,4 C 90 % 999,9 hPa 0,0 l/m 4,7 km/h (1 Bft) S-SW 203 0 min 0 W/m -4,8 C -3,4 C 9,7 km/h (2 Bft)
31.01.2021 20:12 -3,4 C 90 % 999,9 hPa 0,0 l/m 5,3 km/h (1 Bft) O-SO 120 0 min 0 W/m -4,8 C -3,4 C 12,9 km/h (3 Bft)
31.01.2021 20:15 -3,4 C 90 % 999,9 hPa 0,0 l/m 4,1 km/h (1 Bft) S-SO 154 0 min 0 W/m -4,8 C -3,4 C 8,0 km/h (2 Bft)
31.01.2021 20:18 -3,4 C 90 % 999,9 hPa 0,0 l/m 5,8 km/h (2 Bft) S-SO 155 0 min 0 W/m -4,8 C -3,4 C 11,3 km/h (2 Bft)
31.01.2021 20:21 -3,5 C 90 % 999,8 hPa 0,0 l/m 4,9 km/h (1 Bft) S-SO 155 0 min 0 W/m -4,9 C -3,5 C 9,7 km/h (2 Bft)
31.01.2021 20:24 -3,6 C 90 % 999,8 hPa 0,0 l/m 4,0 km/h (1 Bft) S-SO 154 0 min 0 W/m -5,0 C -3,6 C 6,4 km/h (2 Bft)
31.01.2021 20:27 -3,6 C 90 % 999,7 hPa 0,0 l/m 4,7 km/h (1 Bft) S-SO 151 0 min 0 W/m -5,0 C -3,6 C 9,7 km/h (2 Bft)
31.01.2021 20:30 -3,6 C 90 % 999,7 hPa 0,0 l/m 3,8 km/h (1 Bft) S-SO 151 0 min 0 W/m -5,0 C -3,6 C 6,4 km/h (2 Bft)
31.01.2021 20:33 -3,6 C 90 % 999,7 hPa 0,0 l/m 3,7 km/h (1 Bft) S-SO 151 0 min 0 W/m -5,0 C -3,6 C 6,4 km/h (2 Bft)
31.01.2021 20:36 -3,6 C 90 % 999,7 hPa 0,0 l/m 3,7 km/h (1 Bft) S-SO 151 0 min 0 W/m -5,0 C -3,6 C 6,4 km/h (2 Bft)
31.01.2021 20:39 -3,7 C 90 % 999,7 hPa 0,0 l/m 4,0 km/h (1 Bft) S-SO 151 0 min 0 W/m -5,1 C -3,7 C 6,4 km/h (2 Bft)
31.01.2021 20:42 -3,7 C 90 % 999,6 hPa 0,0 l/m 4,4 km/h (1 Bft) S-SO 150 0 min 0 W/m -5,1 C -3,7 C 8,0 km/h (2 Bft)
31.01.2021 20:45 -3,7 C 90 % 999,6 hPa 0,0 l/m 4,3 km/h (1 Bft) S-SO 150 0 min 0 W/m -5,1 C -3,7 C 6,4 km/h (2 Bft)
31.01.2021 20:48 -3,7 C 90 % 999,6 hPa 0,0 l/m 4,2 km/h (1 Bft) S-SO 150 0 min 0 W/m -5,1 C -3,7 C 8,0 km/h (2 Bft)
31.01.2021 20:51 -3,8 C 90 % 999,6 hPa 0,0 l/m 4,8 km/h (1 Bft) S-SO 150 0 min 0 W/m -5,2 C -3,8 C 8,0 km/h (2 Bft)
31.01.2021 20:54 -3,8 C 90 % 999,6 hPa 0,0 l/m 3,7 km/h (1 Bft) S-SO 150 0 min 0 W/m -5,2 C -3,8 C 6,4 km/h (2 Bft)
31.01.2021 20:57 -3,8 C 90 % 999,6 hPa 0,0 l/m 4,0 km/h (1 Bft) S-SO 150 0 min 0 W/m -5,2 C -3,8 C 6,4 km/h (2 Bft)
31.01.2021 21:00 -3,8 C 90 % 999,5 hPa 0,0 l/m 4,0 km/h (1 Bft) S-SO 150 0 min 0 W/m -5,2 C -3,8 C 6,4 km/h (2 Bft)
31.01.2021 21:03 -3,8 C 90 % 999,5 hPa 0,0 l/m 3,8 km/h (1 Bft) S-SO 149 0 min 0 W/m -5,2 C -3,8 C 8,0 km/h (2 Bft)
31.01.2021 21:06 -3,9 C 90 % 999,5 hPa 0,0 l/m 2,9 km/h (1 Bft) S-SO 149 0 min 0 W/m -5,3 C -3,9 C 6,4 km/h (2 Bft)
31.01.2021 21:09 -3,9 C 90 % 999,5 hPa 0,0 l/m 3,0 km/h (1 Bft) S-SO 149 0 min 0 W/m -5,3 C -3,9 C 4,8 km/h (1 Bft)
31.01.2021 21:12 -3,9 C 90 % 999,4 hPa 0,0 l/m 3,3 km/h (1 Bft) S-SO 149 0 min 0 W/m -5,3 C -3,9 C 4,8 km/h (1 Bft)
31.01.2021 21:15 -4,0 C 90 % 999,4 hPa 0,0 l/m 4,4 km/h (1 Bft) S-SO 149 0 min 0 W/m -5,4 C -4,0 C 8,0 km/h (2 Bft)
31.01.2021 21:18 -4,1 C 90 % 999,3 hPa 0,0 l/m 2,3 km/h (1 Bft) S-SO 149 0 min 0 W/m -5,5 C -4,1 C 4,8 km/h (1 Bft)
31.01.2021 21:21 -4,1 C 90 % 999,3 hPa 0,0 l/m 1,9 km/h (1 Bft) S-SO 149 0 min 0 W/m -5,5 C -4,1 C 4,8 km/h (1 Bft)
31.01.2021 21:24 -4,1 C 90 % 999,3 hPa 0,0 l/m 2,7 km/h (1 Bft) S-SO 149 0 min 0 W/m -5,5 C -4,1 C 4,8 km/h (1 Bft)
31.01.2021 21:27 -4,2 C 90 % 999,2 hPa 0,0 l/m 3,0 km/h (1 Bft) S-SO 149 0 min 0 W/m -5,6 C -4,2 C 6,4 km/h (2 Bft)
31.01.2021 21:30 -4,2 C 90 % 999,1 hPa 0,0 l/m 2,6 km/h (1 Bft) S-SO 149 0 min 0 W/m -5,6 C -4,2 C 4,8 km/h (1 Bft)
31.01.2021 21:33 -4,2 C 90 % 999,1 hPa 0,0 l/m 2,3 km/h (1 Bft) S-SO 149 0 min 0 W/m -5,6 C -4,2 C 6,4 km/h (2 Bft)
31.01.2021 21:36 -4,3 C 90 % 999,1 hPa 0,0 l/m 2,5 km/h (1 Bft) S-SO 149 0 min 0 W/m -5,7 C -4,3 C 4,8 km/h (1 Bft)
31.01.2021 21:39 -4,3 C 90 % 999,1 hPa 0,0 l/m 2,3 km/h (1 Bft) S-SO 149 0 min 0 W/m -5,7 C -4,3 C 4,8 km/h (1 Bft)
31.01.2021 21:42 -4,3 C 90 % 999,1 hPa 0,0 l/m 2,3 km/h (1 Bft) S-SO 149 0 min 0 W/m -5,7 C -4,3 C 6,4 km/h (2 Bft)
31.01.2021 21:45 -4,4 C 90 % 999,1 hPa 0,0 l/m 3,3 km/h (1 Bft) S-SO 149 0 min 0 W/m -5,8 C -4,4 C 4,8 km/h (1 Bft)
31.01.2021 21:48 -4,4 C 90 % 999,1 hPa 0,0 l/m 3,2 km/h (1 Bft) S-SO 149 0 min 0 W/m -5,8 C -4,4 C 4,8 km/h (1 Bft)
31.01.2021 21:51 -4,5 C 90 % 999,1 hPa 0,0 l/m 3,3 km/h (1 Bft) S-SO 149 0 min 0 W/m -5,9 C -4,5 C 6,4 km/h (2 Bft)
31.01.2021 21:54 -4,5 C 90 % 999,1 hPa 0,0 l/m 3,8 km/h (1 Bft) S-SO 149 0 min 0 W/m -5,9 C -4,5 C 6,4 km/h (2 Bft)
31.01.2021 21:57 -4,6 C 90 % 999,1 hPa 0,0 l/m 2,6 km/h (1 Bft) S-SO 149 0 min 0 W/m -6,0 C -4,6 C 4,8 km/h (1 Bft)
31.01.2021 22:00 -4,6 C 90 % 999,1 hPa 0,0 l/m 3,1 km/h (1 Bft) S-SO 149 0 min 0 W/m -6,0 C -4,6 C 6,4 km/h (2 Bft)
31.01.2021 22:03 -4,7 C 90 % 999,1 hPa 0,0 l/m 2,8 km/h (1 Bft) S-SO 149 0 min 0 W/m -6,1 C -4,7 C 4,8 km/h (1 Bft)
31.01.2021 22:06 -4,7 C 90 % 999,2 hPa 0,0 l/m 2,7 km/h (1 Bft) S-SO 149 0 min 0 W/m -6,1 C -4,7 C 6,4 km/h (2 Bft)
31.01.2021 22:09 -4,7 C 90 % 999,1 hPa 0,0 l/m 1,9 km/h (1 Bft) S-SO 149 0 min 0 W/m -6,1 C -4,7 C 4,8 km/h (1 Bft)
31.01.2021 22:12 -4,8 C 90 % 999,1 hPa 0,0 l/m 1,2 km/h (1 Bft) S-SO 149 0 min 0 W/m -6,2 C -4,8 C 3,2 km/h (1 Bft)
31.01.2021 22:15 -4,8 C 90 % 999,2 hPa 0,0 l/m 1,0 km/h (0 Bft) S-SO 149 0 min 0 W/m -6,2 C -4,8 C 4,8 km/h (1 Bft)
31.01.2021 22:18 -4,8 C 90 % 999,1 hPa 0,0 l/m 0,0 km/h (0 Bft) S-SO 149 0 min 0 W/m -6,2 C -4,8 C 0,0 km/h (0 Bft)
31.01.2021 22:21 -4,8 C 90 % 999,0 hPa 0,0 l/m 0,0 km/h (0 Bft) S-SO 149 0 min 0 W/m -6,2 C -4,8 C 0,0 km/h (0 Bft)
31.01.2021 22:24 -4,9 C 90 % 999,0 hPa 0,0 l/m 0,0 km/h (0 Bft) S-SO 149 0 min 0 W/m -6,3 C -4,9 C 0,0 km/h (0 Bft)
31.01.2021 22:27 -4,9 C 90 % 999,0 hPa 0,0 l/m 0,0 km/h (0 Bft) S-SO 149 0 min 0 W/m -6,3 C -4,9 C 0,0 km/h (0 Bft)
31.01.2021 22:30 -4,9 C 90 % 998,9 hPa 0,0 l/m 0,0 km/h (0 Bft) S-SO 149 0 min 0 W/m -6,3 C -4,9 C 0,0 km/h (0 Bft)
31.01.2021 22:33 -5,0 C 90 % 998,9 hPa 0,0 l/m 0,7 km/h (0 Bft) S-SO 149 0 min 0 W/m -6,4 C -5,0 C 4,8 km/h (1 Bft)
31.01.2021 22:36 -5,1 C 90 % 998,9 hPa 0,0 l/m 2,6 km/h (1 Bft) S-SO 149 0 min 0 W/m -6,5 C -5,1 C 4,8 km/h (1 Bft)
31.01.2021 22:39 -5,1 C 90 % 998,8 hPa 0,0 l/m 1,8 km/h (1 Bft) S-SO 149 0 min 0 W/m -6,5 C -5,1 C 4,8 km/h (1 Bft)
31.01.2021 22:42 -5,1 C 90 % 998,8 hPa 0,0 l/m 1,6 km/h (1 Bft) S-SO 149 0 min 0 W/m -6,5 C -5,1 C 6,4 km/h (2 Bft)
31.01.2021 22:45 -5,1 C 90 % 998,8 hPa 0,0 l/m 1,8 km/h (1 Bft) S-SO 149 0 min 0 W/m -6,5 C -5,1 C 3,2 km/h (1 Bft)
31.01.2021 22:48 -5,2 C 90 % 998,8 hPa 0,0 l/m 0,5 km/h (0 Bft) S-SO 149 0 min 0 W/m -6,6 C -5,2 C 3,2 km/h (1 Bft)
31.01.2021 22:51 -5,2 C 90 % 998,7 hPa 0,0 l/m 0,2 km/h (0 Bft) S-SO 149 0 min 0 W/m -6,6 C -5,2 C 1,6 km/h (1 Bft)
31.01.2021 22:54 -5,2 C 90 % 998,7 hPa 0,0 l/m 1,6 km/h (1 Bft) S-SO 149 0 min 0 W/m -6,6 C -5,2 C 4,8 km/h (1 Bft)
31.01.2021 22:57 -5,2 C 90 % 998,6 hPa 0,0 l/m 0,3 km/h (0 Bft) S-SO 149 0 min 0 W/m -6,6 C -5,2 C 1,6 km/h (1 Bft)
31.01.2021 23:00 -5,3 C 90 % 998,5 hPa 0,0 l/m 0,7 km/h (0 Bft) S-SO 149 0 min 0 W/m -6,7 C -5,3 C 3,2 km/h (1 Bft)
31.01.2021 23:03 -5,3 C 90 % 998,5 hPa 0,0 l/m 1,7 km/h (1 Bft) S-SO 149 0 min 0 W/m -6,7 C -5,3 C 4,8 km/h (1 Bft)
31.01.2021 23:06 -5,3 C 90 % 998,4 hPa 0,0 l/m 1,3 km/h (1 Bft) S-SO 149 0 min 0 W/m -6,7 C -5,3 C 3,2 km/h (1 Bft)
31.01.2021 23:09 -5,4 C 90 % 998,4 hPa 0,0 l/m 1,0 km/h (0 Bft) S-SO 148 0 min 0 W/m -6,8 C -5,4 C 4,8 km/h (1 Bft)
31.01.2021 23:12 -5,4 C 90 % 998,3 hPa 0,0 l/m 0,7 km/h (0 Bft) S-SO 148 0 min 0 W/m -6,8 C -5,4 C 3,2 km/h (1 Bft)
31.01.2021 23:15 -5,4 C 90 % 998,3 hPa 0,0 l/m 0,6 km/h (0 Bft) S-SO 148 0 min 0 W/m -6,8 C -5,4 C 3,2 km/h (1 Bft)
31.01.2021 23:18 -5,4 C 90 % 998,3 hPa 0,0 l/m 0,9 km/h (0 Bft) S-SO 148 0 min 0 W/m -6,8 C -5,4 C 3,2 km/h (1 Bft)
31.01.2021 23:21 -5,4 C 90 % 998,3 hPa 0,0 l/m 0,8 km/h (0 Bft) S-SO 148 0 min 0 W/m -6,8 C -5,4 C 3,2 km/h (1 Bft)
31.01.2021 23:24 -5,5 C 90 % 998,3 hPa 0,0 l/m 1,1 km/h (1 Bft) S-SO 148 0 min 0 W/m -6,9 C -5,5 C 3,2 km/h (1 Bft)
31.01.2021 23:27 -5,5 C 90 % 998,3 hPa 0,0 l/m 2,5 km/h (1 Bft) S-SO 148 0 min 0 W/m -6,9 C -5,5 C 4,8 km/h (1 Bft)
31.01.2021 23:30 -5,5 C 90 % 998,2 hPa 0,0 l/m 0,3 km/h (0 Bft) S-SO 148 0 min 0 W/m -6,9 C -5,5 C 1,6 km/h (1 Bft)
31.01.2021 23:33 -5,5 C 91 % 998,2 hPa 0,0 l/m 0,8 km/h (0 Bft) S-SO 148 0 min 0 W/m -6,7 C -5,5 C 3,2 km/h (1 Bft)
31.01.2021 23:36 -5,5 C 91 % 998,1 hPa 0,0 l/m 0,0 km/h (0 Bft) S-SO 148 0 min 0 W/m -6,7 C -5,5 C 0,0 km/h (0 Bft)
31.01.2021 23:39 -5,5 C 91 % 998,1 hPa 0,0 l/m 0,0 km/h (0 Bft) S-SO 148 0 min 0 W/m -6,7 C -5,5 C 0,0 km/h (0 Bft)
31.01.2021 23:42 -5,5 C 91 % 998,1 hPa 0,0 l/m 0,0 km/h (0 Bft) S-SO 148 0 min 0 W/m -6,7 C -5,5 C 0,0 km/h (0 Bft)
31.01.2021 23:45 -5,5 C 91 % 998,1 hPa 0,0 l/m 0,8 km/h (0 Bft) S-SO 148 0 min 0 W/m -6,7 C -5,5 C 4,8 km/h (1 Bft)
31.01.2021 23:48 -5,5 C 91 % 998,1 hPa 0,0 l/m 1,7 km/h (1 Bft) S-SO 148 0 min 0 W/m -6,7 C -5,5 C 3,2 km/h (1 Bft)
31.01.2021 23:51 -5,4 C 91 % 998,1 hPa 0,0 l/m 1,6 km/h (1 Bft) S-SO 148 0 min 0 W/m -6,6 C -5,4 C 3,2 km/h (1 Bft)
31.01.2021 23:54 -5,4 C 91 % 998,1 hPa 0,0 l/m 1,8 km/h (1 Bft) S-SO 148 0 min 0 W/m -6,6 C -5,4 C 3,2 km/h (1 Bft)
31.01.2021 23:57 -5,4 C 91 % 998,1 hPa 0,0 l/m 2,0 km/h (1 Bft) S-SO 148 0 min 0 W/m -6,6 C -5,4 C 3,2 km/h (1 Bft)
_ Min-Zeit 00:27 14:24 23:36 - 17:00 - - - - 00:30 00:30 17:00
Minimum _ -8,4 C 83 % 998,1 hPa - 0,0 km/h (0 Bft) - - - - -9,5 C -8,4 C 0,0 km/h (0 Bft)
_ Max-Zeit 13:48 05:06 00:00 14:12 11:21 - - 11:18 12:27 12:39 13:57 11:21
Maximum _ 0,7 C 95 % 1004,5 hPa 0,2 l/m 14,4 km/h
W-SW (3 Bft)
- - 3 min 320 W/m -0,8 C 0,7 C 22,5 km/h
SW (4 Bft)
Durchschnitt _ -3,5 C 91 % 1002,3 hPa #0,2 l/m 5,0 km/h (1 Bft) SW - #2:42 h 99 W/m -4,7 C -4,3 C 8,0 km/h (2 Bft)
2021 Cux-Wetter.de -Die Nutzung der Wetterdaten nur mit ausdrcklicher Genehmigung